WA4BPS Weather Reports


time (UTC)temp
F
wind
direction
speed
knots
gust
knots
rain 1hr
in
rain 24hr
in
rain mn
in
humidity
%
barometer
mb
20260510082336 62 330 2.6 6.1 0.00 0.00 0.00 88 1010.7
20260510082254 62 333 3.5 6.1 0.00 0.00 0.00 88 1010.7
20260510082131 62 325 2.6 6.1 0.00 0.00 0.00 88 1010.7
20260510082030 62 329 3.5 6.1 0.00 0.00 0.00 88 1010.7
20260510081928 62 329 2.6 7.0 0.00 0.00 0.00 88 1010.7
20260510081826 62 325 4.3 7.0 0.00 0.00 0.00 88 1010.7
20260510081732 62 332 2.6 7.0 0.00 0.00 0.00 88 1010.7
20260510081702 62 330 3.5 7.0 0.00 0.00 0.00 88 1010.7
20260510081541 62 329 4.3 7.0 0.00 0.00 0.00 88 1010.7
20260510081500 62 315 4.3 7.0 0.00 0.00 0.00 88 1010.7
20260510081337 62 328 2.6 7.0 0.00 0.00 0.00 88 1010.6
20260510081234 62 330 1.7 7.0 0.00 0.00 0.00 88 1010.6
20260510081133 62 309 4.3 7.0 0.00 0.00 0.00 88 1010.6
20260510081035 62 312 1.7 7.0 0.00 0.00 0.00 88 1010.6
20260510080933 62 319 2.6 7.0 0.00 0.00 0.00 88 1010.6
20260510080832 62 329 3.5 7.0 0.00 0.00 0.00 88 1010.6
20260510080730 62 330 4.3 7.0 0.00 0.00 0.00 88 1010.6
20260510080629 62 329 3.5 6.1 0.00 0.00 0.00 88 1010.6
20260510080527 62 330 2.6 6.1 0.00 0.00 0.00 88 1010.6
20260510080425 62 330 3.5 6.1 0.00 0.00 0.00 87 1010.6
20260510080328 62 329 1.7 6.1 0.00 0.00 0.00 87 1010.6
20260510080227 62 328 2.6 6.1 0.00 0.00 0.00 87 1010.6
20260510080155 62 302 1.7 7.0 0.00 0.00 0.00 87 1010.6
20260510080032 62 330 1.7 7.0 0.00 0.00 0.00 87 1010.6
20260510075950 62 333 2.6 7.0 0.00 0.00 0.00 87 1010.6
20260510075830 62 332 3.5 7.0 0.00 0.00 0.00 87 1010.4
20260510075730 62 329 2.6 7.0 0.00 0.00 0.00 87 1010.4
20260510075629 62 329 1.7 7.0 0.00 0.00 0.00 87 1010.4
20260510075531 62 330 2.6 7.0 0.00 0.00 0.00 87 1010.4
20260510075429 62 326 4.3 7.0 0.00 0.00 0.00 87 1010.4
20260510075328 62 325 4.3 7.0 0.00 0.00 0.00 87 1010.4
20260510075226 62 332 4.3 7.0 0.00 0.00 0.00 87 1010.4
20260510075143 62 313 4.3 7.0 0.00 0.00 0.00 87 1010.4
20260510075102 62 320 2.6 7.0 0.00 0.00 0.00 87 1010.4
20260510074938 62 328 2.6 7.8 0.00 0.00 0.00 87 1010.4
20260510074821 62 322 4.3 7.8 0.00 0.00 0.00 87 1010.4
20260510074734 62 329 3.5 7.8 0.00 0.00 0.00 87 1010.4
20260510074644 62 280 5.2 7.8 0.00 0.00 0.00 87 1010.4
20260510074545 62 323 3.5 7.8 0.00 0.00 0.00 86 1010.4
20260510074442 62 280 3.5 8.7 0.00 0.00 0.00 86 1010.4
20260510074341 62 316 2.6 8.7 0.00 0.00 0.00 86 1010.4
20260510074239 62 332 5.2 8.7 0.00 0.00 0.00 86 1010.4
20260510074138 62 302 4.3 8.7 0.00 0.00 0.00 86 1010.4
20260510074040 62 330 3.5 8.7 0.00 0.00 0.00 86 1010.4
20260510073938 62 318 1.7 8.7 0.00 0.00 0.00 86 1010.4
20260510073837 62 302 0.9 8.7 0.00 0.00 0.00 86 1010.4
20260510073755 62 294 1.7 8.7 0.00 0.00 0.00 86 1010.4
20260510073633 62 330 3.5 8.7 0.00 0.00 0.00 86 1010.4
20260510073530 62 332 2.6 5.2 0.00 0.00 0.00 86 1010.4
20260510073449 62 332 2.6 8.7 0.00 0.00 0.00 86 1010.4
20260510073346 62 332 3.5 8.7 0.00 0.00 0.00 86 1010.4
20260510073238 62 332 1.7 8.7 0.00 0.00 0.00 86 1010.4
20260510073146 62 332 3.5 8.7 0.00 0.00 0.00 86 1010.4
20260510073044 62 329 4.3 8.7 0.00 0.00 0.00 86 1010.4
20260510072942 62 330 3.5 8.7 0.00 0.00 0.00 86 1010.4
20260510072841 62 336 3.5 8.7 0.00 0.00 0.00 86 1010.4
20260510072740 62 330 4.3 8.7 0.00 0.00 0.00 86 1010.4
20260510072659 62 318 2.6 8.7 0.00 0.00 0.00 86 1010.4
20260510072537 62 329 3.5 8.7 0.00 0.00 0.00 86 1010.4
20260510072439 62 309 3.5 8.7 0.00 0.00 0.00 86 1010.4
20260510072337 62 332 2.6 8.7 0.00 0.00 0.00 86 1010.4
20260510072236 62 330 4.3 8.7 0.00 0.00 0.00 86 1010.4
20260510072134 62 277 4.3 8.7 0.00 0.00 0.00 86 1010.4
20260510072032 62 328 3.5 8.7 0.00 0.00 0.00 86 1010.4
20260510071930 62 280 3.5 8.7 0.00 0.00 0.00 86 1010.4
20260510071834 62 288 3.5 7.0 0.00 0.00 0.00 86 1010.4
20260510071733 62 332 4.3 7.0 0.00 0.00 0.00 86 1010.4
20260510071703 62 330 3.5 7.0 0.00 0.00 0.00 86 1010.4
20260510071541 62 330 4.3 7.0 0.00 0.00 0.00 86 1010.4
20260510071500 62 325 3.5 7.0 0.00 0.00 0.00 86 1010.4
20260510071337 62 308 3.5 7.0 0.00 0.00 0.00 86 1010.3
20260510071256 62 328 3.5 7.0 0.00 0.00 0.00 86 1010.3
20260510071153 62 329 2.6 7.8 0.00 0.00 0.00 86 1010.3
20260510071031 62 282 2.6 7.8 0.00 0.00 0.00 86 1010.3
20260510070934 62 311 3.5 7.8 0.00 0.00 0.00 85 1010.3
20260510070853 62 285 3.5 7.8 0.00 0.00 0.00 85 1010.3
20260510070733 62 329 2.6 9.6 0.00 0.00 0.00 85 1010.3
20260510070630 62 304 3.5 9.6 0.00 0.00 0.00 85 1010.3
20260510070529 62 325 3.5 9.6 0.00 0.00 0.00 85 1010.3
20260510070448 62 288 3.5 9.6 0.00 0.00 0.00 85 1010.3
20260510070327 62 323 6.1 9.6 0.00 0.00 0.00 85 1010.3
20260510070236 62 332 4.3 9.6 0.00 0.00 0.00 85 1010.3
20260510070150 62 311 4.3 9.6 0.00 0.00 0.00 85 1010.3
20260510070047 62 296 1.7 9.6 0.00 0.00 0.00 85 1010.3
20260510065945 62 319 4.3 9.6 0.00 0.00 0.00 85 1010.3
20260510065844 62 282 5.2 9.6 0.00 0.00 0.00 85 1010.4
20260510065802 62 272 3.5 8.7 0.00 0.00 0.00 85 1010.4
20260510065638 62 301 3.5 8.7 0.00 0.00 0.00 85 1010.4
20260510065536 62 330 3.5 8.7 0.00 0.00 0.00 84 1010.4
20260510065435 62 312 3.5 8.7 0.00 0.00 0.00 84 1010.4
20260510065334 62 275 2.6 8.7 0.00 0.00 0.00 84 1010.4
20260510065258 62 296 3.5 8.7 0.00 0.00 0.00 84 1010.4
20260510065136 62 265 4.3 8.7 0.00 0.00 0.00 84 1010.4
20260510065033 62 332 2.6 7.0 0.00 0.00 0.00 84 1010.4
20260510064931 62 260 4.3 7.0 0.00 0.00 0.00 84 1010.4
20260510064829 62 277 2.6 7.0 0.00 0.00 0.00 84 1010.4
20260510064738 62 322 2.6 7.0 0.00 0.00 0.00 84 1010.4
20260510064646 62 309 2.6 7.0 0.00 0.00 0.00 84 1010.4
20260510064543 62 332 2.6 7.0 0.00 0.00 0.00 84 1010.4
20260510064446 62 294 3.5 7.0 0.00 0.00 0.00 84 1010.4
20260510064344 62 329 5.2 7.0 0.00 0.00 0.00 84 1011.3
20260510064303 62 243 4.3 7.0 0.00 0.00 0.00 84 1011.3
20260510064141 62 308 3.5 7.0 0.00 0.00 0.00 83 1011.3
20260510064104 62 322 2.6 7.0 0.00 0.00 0.00 83 1011.3
20260510063940 62 253 3.5 7.0 0.00 0.00 0.00 83 1011.3
20260510063839 62 330 3.5 7.0 0.00 0.00 0.00 83 1011.3
20260510063737 63 292 2.6 6.1 0.00 0.00 0.00 83 1011.3
20260510063640 63 332 4.3 6.1 0.00 0.00 0.00 83 1011.3
20260510063558 63 308 4.3 6.1 0.00 0.00 0.00 83 1011.3
20260510063458 63 304 4.3 8.7 0.00 0.00 0.00 83 1011.3
20260510063334 63 316 4.3 9.6 0.00 0.00 0.00 83 1011.3
20260510063232 63 318 2.6 9.6 0.00 0.00 0.00 83 1011.3
20260510063204 63 323 3.5 9.6 0.00 0.00 0.00 83 1011.3
20260510063039 63 306 2.6 9.6 0.00 0.00 0.00 83 1011.3
20260510063000 63 268 2.6 9.6 0.00 0.00 0.00 83 1011.3
20260510062837 63 257 2.6 9.6 0.00 0.00 0.00 83 1011.4
20260510062740 63 326 4.3 9.6 0.00 0.00 0.00 83 1011.4
20260510062658 63 287 6.1 9.6 0.00 0.00 0.00 83 1011.4
20260510062554 63 261 4.3 9.6 0.00 0.00 0.00 82 1011.4
20260510062432 63 277 4.3 9.6 0.00 0.00 0.00 82 1011.4
20260510062331 63 308 4.3 9.6 0.00 0.00 0.00 82 1011.4
20260510062230 63 329 4.3 9.6 0.00 0.00 0.00 82 1011.4
20260510062129 63 329 4.3 9.6 0.00 0.00 0.00 82 1011.4
20260510062035 63 254 5.2 9.6 0.00 0.00 0.00 82 1011.4
20260510061934 63 328 5.2 9.6 0.00 0.00 0.00 82 1011.4
20260510061832 63 332 5.2 8.7 0.00 0.00 0.00 82 1011.4
20260510061742 63 274 4.3 9.6 0.00 0.00 0.00 82 1011.4
20260510061651 63 329 4.3 9.6 0.00 0.00 0.00 82 1011.4
20260510061529 63 298 3.5 9.6 0.00 0.00 0.00 82 1011.4
20260510061448 63 329 7.0 9.6 0.00 0.00 0.00 82 1011.4
20260510061346 63 302 5.2 9.6 0.00 0.00 0.00 82 1010.7
20260510061243 63 306 4.3 9.6 0.00 0.00 0.00 82 1010.7
20260510061146 63 329 4.3 9.6 0.00 0.00 0.00 82 1010.7
20260510061104 63 308 4.3 9.6 0.00 0.00 0.00 82 1010.7
20260510060942 63 289 4.3 9.6 0.00 0.00 0.00 81 1010.7
20260510060840 63 320 3.5 9.6 0.00 0.00 0.00 81 1010.7
20260510060738 63 298 3.5 10.4 0.00 0.00 0.00 81 1010.7
20260510060636 63 313 4.3 11.3 0.00 0.00 0.00 81 1010.7
20260510060535 63 280 3.5 11.3 0.00 0.00 0.00 81 1010.7
20260510060438 63 299 4.3 11.3 0.00 0.00 0.00 81 1010.7
20260510060336 63 318 4.3 11.3 0.00 0.00 0.00 81 1010.7
20260510060235 63 258 4.3 11.3 0.00 0.00 0.00 81 1010.7
20260510060206 63 260 4.3 11.3 0.00 0.00 0.00 81 1010.7
20260510060000 63 299 6.1 11.3 0.00 0.00 0.00 81 1010.7
20260510055839 63 328 6.1 11.3 0.00 0.00 0.00 81 1010.7
20260510055737 63 308 7.8 11.3 0.00 0.00 0.00 81 1010.7
20260510055656 63 325 4.3 10.4 0.00 0.00 0.00 81 1010.7
20260510055537 63 304 4.3 10.4 0.00 0.00 0.00 81 1010.7
20260510055436 63 320 5.2 9.6 0.00 0.00 0.00 81 1010.7
20260510055335 63 304 5.2 9.6 0.00 0.00 0.00 81 1010.7
20260510055253 63 285 7.0 9.6 0.00 0.00 0.00 81 1010.7
20260510055131 63 292 6.1 8.7 0.00 0.00 0.00 81 1010.7
20260510055050 63 282 6.1 8.7 0.00 0.00 0.00 80 1010.7
20260510054927 63 332 5.2 9.6 0.00 0.00 0.00 80 1010.7
20260510054830 63 325 7.0 9.6 0.00 0.00 0.00 80 1010.7
20260510054728 63 313 4.3 9.6 0.00 0.00 0.00 80 1010.7
20260510054658 63 330 3.5 9.6 0.00 0.00 0.00 80 1010.7
20260510054537 63 322 4.3 9.6 0.00 0.00 0.00 80 1010.7
20260510054455 63 330 5.2 10.4 0.00 0.00 0.00 80 1010.7
20260510054333 63 318 5.2 10.4 0.00 0.00 0.00 80 1010.8
20260510054232 63 274 4.3 10.4 0.00 0.00 0.00 80 1010.8
20260510054151 63 251 5.2 10.4 0.00 0.00 0.00 80 1010.8
20260510054032 63 330 6.1 10.4 0.00 0.00 0.00 80 1010.8
20260510053931 63 330 5.2 10.4 0.00 0.00 0.00 80 1010.8
20260510053854 63 332 6.1 10.4 0.00 0.00 0.00 80 1010.8
20260510053732 63 316 4.3 11.3 0.00 0.00 0.00 80 1010.8
20260510053631 63 330 7.0 11.3 0.00 0.00 0.00 80 1010.8
20260510053549 63 332 7.0 11.3 0.00 0.00 0.00 80 1010.8
20260510053426 63 318 4.3 11.3 0.00 0.00 0.00 80 1010.8
20260510053324 63 328 7.8 11.3 0.00 0.00 0.00 80 1010.8
20260510053226 63 316 5.2 11.3 0.00 0.00 0.00 80 1010.8
20260510053156 63 330 5.2 11.3 0.00 0.00 0.00 80 1010.8
20260510053033 63 271 6.1 11.3 0.00 0.00 0.00 80 1010.8
20260510052933 63 318 7.0 11.3 0.00 0.00 0.00 80 1010.8
20260510052832 63 330 6.1 11.3 0.00 0.00 0.00 80 1010.7
20260510052730 63 330 7.8 11.3 0.00 0.00 0.00 80 1010.7
20260510052648 63 332 7.0 11.3 0.00 0.00 0.00 80 1010.7
20260510052608 63 337 5.2 11.3 0.00 0.00 0.00 80 1010.7
20260510052505 63 316 4.3 7.0 0.00 0.00 0.00 80 1010.7
20260510052407 63 299 3.5 7.0 0.00 0.00 0.00 80 1010.7
20260510052306 63 330 3.5 7.8 0.00 0.00 0.00 80 1010.7
20260510052142 63 330 5.2 7.8 0.00 0.00 0.00 80 1010.7
20260510052039 63 330 5.2 8.7 0.00 0.00 0.00 80 1010.7
20260510051957 63 330 3.5 10.4 0.00 0.00 0.00 79 1010.7
20260510051854 63 332 3.5 10.4 0.00 0.00 0.00 80 1010.7
20260510051752 63 332 2.6 10.4 0.00 0.00 0.00 80 1010.7
20260510051701 63 329 4.3 10.4 0.00 0.00 0.00 80 1010.7
20260510051538 63 330 3.5 10.4 0.00 0.00 0.00 79 1010.7
20260510051434 63 329 4.3 10.4 0.00 0.00 0.00 79 1010.7
20260510051338 63 332 4.3 10.4 0.00 0.00 0.00 79 1010.7
20260510051236 63 330 6.1 10.4 0.00 0.00 0.00 79 1010.7
20260510051155 63 302 7.0 10.4 0.00 0.00 0.00 79 1010.7
20260510051031 63 328 5.2 10.4 0.00 0.00 0.00 79 1010.7
20260510050953 63 332 5.2 10.4 0.00 0.00 0.00 79 1010.7
20260510050831 63 322 7.0 10.4 0.00 0.00 0.00 79 1010.7
20260510050729 63 329 5.2 10.4 0.00 0.00 0.00 79 1010.7
20260510050629 63 326 7.8 10.4 0.00 0.00 0.00 79 1010.7
20260510050531 63 330 7.0 10.4 0.00 0.00 0.00 79 1010.7
20260510050431 63 328 5.2 10.4 0.00 0.00 0.00 79 1010.7
20260510050330 63 320 7.8 10.4 0.00 0.00 0.00 79 1010.7
20260510050239 63 302 5.2 9.6 0.00 0.00 0.00 79 1010.7
20260510050151 63 313 6.1 9.6 0.00 0.00 0.00 79 1010.7
20260510050028 63 330 6.1 9.6 0.00 0.00 0.00 79 1010.7
20260510045925 63 330 5.2 9.6 0.00 0.00 0.00 79 1010.7
20260510045829 63 337 5.2 9.6 0.00 0.00 0.00 79 1011.6
20260510045727 64 328 3.5 9.6 0.00 0.00 0.00 79 1011.6
20260510045646 64 309 4.3 9.6 0.00 0.00 0.00 79 1011.6
20260510045605 64 316 3.5 11.3 0.00 0.00 0.00 79 1011.6
20260510045502 64 329 5.2 11.3 0.00 0.00 0.00 79 1011.6
20260510045339 64 289 6.1 11.3 0.00 0.00 0.00 79 1011.6
20260510045258 64 330 4.3 11.3 0.00 0.00 0.00 79 1011.6
20260510045134 64 330 5.2 11.3 0.00 0.00 0.00 79 1011.6
20260510045032 64 326 7.0 11.3 0.00 0.00 0.00 79 1011.6
20260510044955 64 330 4.3 11.3 0.00 0.00 0.00 79 1011.6
20260510044833 64 302 4.3 11.3 0.00 0.00 0.00 79 1011.6
20260510044733 64 332 7.0 11.3 0.00 0.00 0.00 80 1011.6
20260510044703 64 326 6.1 11.3 0.00 0.00 0.00 80 1011.6
20260510044601 64 328 5.2 10.4 0.00 0.00 0.00 80 1011.6
20260510044439 64 326 4.3 11.3 0.00 0.00 0.00 80 1011.6
20260510044342 64 329 7.0 11.3 0.00 0.00 0.00 80 1011.7
20260510044240 64 323 6.1 11.3 0.00 0.00 0.00 80 1011.7
20260510044142 64 329 6.1 11.3 0.00 0.00 0.00 80 1011.7
20260510044041 64 329 6.1 11.3 0.00 0.00 0.00 80 1011.7
20260510043939 64 330 7.8 11.3 0.00 0.00 0.00 80 1011.7
20260510043835 64 325 5.2 11.3 0.00 0.00 0.00 80 1011.7
20260510043734 64 326 9.6 11.3 0.00 0.00 0.00 80 1011.7
20260510043653 64 323 6.1 11.3 0.00 0.00 0.00 80 1011.7
20260510043530 64 280 6.1 11.3 0.00 0.00 0.00 80 1011.7
20260510043431 64 329 6.1 10.4 0.00 0.00 0.00 80 1011.7
20260510043330 64 280 2.6 10.4 0.00 0.00 0.00 80 1011.7
20260510043239 64 335 3.5 10.4 0.00 0.00 0.00 80 1011.7
20260510043148 64 295 5.2 10.4 0.00 0.00 0.00 80 1011.7
20260510043025 64 311 7.8 10.4 0.00 0.00 0.00 80 1011.7
20260510042943 64 326 6.1 10.4 0.00 0.00 0.00 80 1011.7
20260510042841 64 328 6.1 10.4 0.00 0.00 0.00 80 1010.9
20260510042800 64 330 7.0 10.4 0.00 0.00 0.00 80 1010.9
20260510042657 64 319 7.0 10.4 0.00 0.00 0.00 80 1010.9
20260510042559 64 329 5.2 10.4 0.00 0.00 0.00 80 1010.9
20260510042456 64 329 5.2 10.4 0.00 0.00 0.00 80 1010.9
20260510042334 64 329 7.0 10.4 0.00 0.00 0.00 80 1010.9
20260510042232 64 305 5.2 10.4 0.00 0.00 0.00 80 1010.9
20260510042130 64 330 4.3 10.4 0.00 0.00 0.00 80 1010.9
20260510042029 64 330 5.2 10.4 0.00 0.00 0.00 80 1010.9
20260510041928 64 316 5.2 10.4 0.00 0.00 0.00 80 1010.9
20260510041847 64 330 4.3 10.4 0.00 0.00 0.00 80 1010.9
20260510041728 64 329 7.8 10.4 0.00 0.00 0.00 80 1010.9
20260510041657 64 289 6.1 10.4 0.00 0.00 0.00 80 1010.9
20260510041534 64 318 7.0 10.4 0.00 0.00 0.00 80 1010.9
20260510041433 64 312 7.0 10.4 0.00 0.00 0.00 80 1010.9
20260510041351 64 330 6.1 13.9 0.00 0.00 0.00 80 1010.9
20260510041228 64 295 5.2 13.9 0.00 0.00 0.00 80 1010.9
20260510041146 64 330 5.2 13.9 0.00 0.00 0.00 80 1010.9
20260510041103 64 330 6.1 13.9 0.00 0.00 0.00 80 1010.9
20260510040945 64 322 5.2 13.9 0.00 0.00 0.00 80 1010.9
20260510040902 64 330 4.3 13.9 0.00 0.00 0.00 80 1010.9
20260510040759 64 329 3.5 13.9 0.00 0.00 0.00 80 1010.9
20260510040637 64 329 5.2 13.9 0.00 0.00 0.00 80 1010.9
20260510040535 64 330 8.7 13.9 0.00 0.00 0.00 80 1010.9
20260510040453 64 335 6.1 11.3 0.00 0.00 0.00 80 1010.9
20260510040330 64 306 7.0 11.3 0.00 0.00 0.00 80 1010.9
20260510040239 64 323 7.8 11.3 0.00 0.00 0.00 80 1010.9
20260510040149 64 288 7.0 11.3 0.00 0.00 0.00 80 1010.9
20260510040045 64 330 7.0 11.3 0.00 0.00 0.00 81 1010.9
20260510035926 64 332 7.8 11.3 0.00 0.00 0.00 81 1010.9
20260510035827 64 322 7.0 11.3 0.00 0.00 0.00 81 1010.9
20260510035726 64 330 6.1 11.3 0.00 0.00 0.00 81 1010.9
20260510035644 64 322 5.2 11.3 0.00 0.00 0.00 81 1010.9
20260510035606 64 330 7.8 11.3 0.00 0.00 0.00 81 1010.9
20260510035504 64 330 7.0 11.3 0.00 0.00 0.00 81 1010.9
20260510035342 64 330 6.1 11.3 0.00 0.00 0.00 81 1010.9
20260510035224 64 277 6.1 11.3 0.00 0.00 0.00 81 1010.9
20260510035142 64 322 5.2 11.3 0.00 0.00 0.00 81 1010.9
20260510035041 64 330 5.2 11.3 0.00 0.00 0.00 81 1010.9
20260510034959 64 329 7.0 11.3 0.00 0.00 0.00 81 1010.9
20260510034837 64 329 7.0 11.3 0.00 0.00 0.00 81 1010.9
20260510034736 64 325 7.0 9.6 0.00 0.00 0.00 81 1010.9
20260510034705 64 330 6.1 9.6 0.00 0.00 0.00 81 1010.9
20260510034542 64 322 5.2 12.2 0.00 0.00 0.00 81 1010.9
20260510034424 64 232 4.3 12.2 0.00 0.00 0.00 81 1010.9
20260510034343 64 329 5.2 12.2 0.00 0.00 0.00 81 1011.0
20260510034241 64 332 4.3 12.2 0.00 0.00 0.00 81 1011.0
20260510034141 64 329 5.2 12.2 0.00 0.00 0.00 81 1011.0
20260510034058 64 329 4.3 12.2 0.00 0.00 0.00 81 1011.0
20260510033937 64 332 7.0 12.2 0.00 0.00 0.00 81 1011.0
20260510033836 64 330 6.1 12.2 0.00 0.00 0.00 81 1011.0
20260510033738 64 332 7.8 12.2 0.00 0.00 0.00 81 1011.0
20260510033636 64 330 6.1 11.3 0.00 0.00 0.00 81 1011.0
20260510033536 64 319 6.1 11.3 0.00 0.00 0.00 81 1011.0
20260510033434 64 272 5.2 11.3 0.00 0.00 0.00 81 1011.0
20260510033333 64 326 6.1 11.3 0.00 0.00 0.00 81 1011.0
20260510033232 64 318 9.6 11.3 0.00 0.00 0.00 81 1011.0
20260510033203 64 332 7.0 11.3 0.00 0.00 0.00 81 1011.0
20260510033043 64 332 5.2 11.3 0.00 0.00 0.00 81 1011.0
20260510032941 64 330 5.2 11.3 0.00 0.00 0.00 81 1011.0
20260510032840 64 330 6.1 11.3 0.00 0.00 0.00 81 1010.9
20260510032738 64 332 6.1 11.3 0.00 0.00 0.00 81 1010.9
20260510032637 64 305 7.0 11.3 0.00 0.00 0.00 81 1010.9
20260510032536 64 263 7.0 11.3 0.00 0.00 0.00 81 1010.9
20260510032435 64 322 6.1 11.3 0.00 0.00 0.00 81 1010.9
20260510032337 64 328 4.3 11.3 0.00 0.00 0.00 81 1010.9
20260510032235 64 330 6.1 11.3 0.00 0.00 0.00 81 1010.9
20260510032133 64 329 7.0 11.3 0.00 0.00 0.00 81 1010.9
20260510032052 64 332 5.2 11.3 0.00 0.00 0.00 81 1010.9
20260510031929 64 319 7.0 11.3 0.00 0.00 0.00 81 1010.9
20260510031828 64 332 7.8 11.3 0.00 0.00 0.00 81 1010.9
20260510031727 64 329 6.1 10.4 0.00 0.00 0.00 81 1010.9
20260510031701 64 330 7.8 10.4 0.00 0.00 0.00 81 1010.9
20260510031539 64 260 7.8 10.4 0.00 0.00 0.00 81 1010.9
20260510031438 64 328 5.2 10.4 0.00 0.00 0.00 81 1010.9
20260510031336 64 302 5.2 10.4 0.00 0.00 0.00 81 1011.2
20260510031234 64 330 6.1 10.4 0.00 0.00 0.00 81 1011.2
20260510031153 64 320 7.0 11.3 0.00 0.00 0.00 81 1011.2
20260510031031 64 304 5.2 11.3 0.00 0.00 0.00 81 1011.2
20260510030932 64 337 4.3 11.3 0.00 0.00 0.00 81 1011.2
20260510030830 64 332 6.1 11.3 0.00 0.00 0.00 81 1011.2
20260510030729 64 329 6.1 11.3 0.00 0.00 0.00 81 1011.2
20260510030627 64 325 4.3 11.3 0.00 0.00 0.00 81 1011.2
20260510030526 64 325 4.3 11.3 0.00 0.00 0.00 81 1011.2
20260510030424 64 322 3.5 11.3 0.00 0.00 0.00 81 1011.2
20260510030343 64 302 4.3 11.3 0.00 0.00 0.00 81 1011.2
20260510030226 64 270 6.1 11.3 0.00 0.00 0.00 81 1011.2
20260510030201 64 332 5.2 11.3 0.00 0.00 0.00 81 1011.2
20260510030041 64 316 5.2 11.3 0.00 0.00 0.00 81 1011.2
20260510025939 64 299 4.3 11.3 0.00 0.00 0.00 81 1011.2
20260510025838 64 192 4.3 11.3 0.00 0.00 0.00 81 1010.9
20260510025737 64 328 5.2 11.3 0.00 0.00 0.00 81 1010.9
20260510025636 64 277 3.5 10.4 0.00 0.00 0.00 81 1010.9
20260510025558 65 226 4.3 10.4 0.00 0.00 0.00 81 1010.9
20260510025435 65 322 6.1 10.4 0.00 0.00 0.00 81 1010.9
20260510025354 65 275 6.1 10.4 0.00 0.00 0.00 81 1010.9
20260510025233 65 311 5.2 9.6 0.00 0.00 0.00 81 1010.9
20260510025152 65 328 5.2 9.6 0.00 0.00 0.00 81 1010.9
20260510025029 65 315 4.3 9.6 0.00 0.00 0.00 81 1010.9
20260510024926 65 292 6.1 9.6 0.00 0.00 0.00 81 1010.9
20260510024826 65 295 5.2 8.7 0.00 0.00 0.00 81 1010.9
20260510024729 65 277 6.1 8.7 0.00 0.00 0.00 81 1010.9
20260510024658 65 244 4.3 8.7 0.00 0.00 0.00 81 1010.9
20260510024556 65 268 4.3 8.7 0.00 0.00 0.00 81 1010.9
20260510024435 65 247 4.3 8.7 0.00 0.00 0.00 81 1010.9
20260510024333 65 280 5.2 9.6 0.00 0.00 0.00 81 1010.6
20260510024231 65 232 4.3 9.6 0.00 0.00 0.00 81 1010.6
20260510024132 65 274 4.3 9.6 0.00 0.00 0.00 81 1010.6
20260510024031 65 284 4.3 9.6 0.00 0.00 0.00 81 1010.6
20260510023933 65 254 2.6 9.6 0.00 0.00 0.00 81 1010.6
20260510023832 65 318 3.5 9.6 0.00 0.00 0.00 80 1010.6
20260510023729 65 265 2.6 9.6 0.00 0.00 0.00 80 1010.6
20260510023648 65 291 3.5 9.6 0.00 0.00 0.00 80 1010.6
20260510023545 65 288 6.1 9.6 0.00 0.00 0.00 80 1010.6
20260510023443 65 298 5.2 9.6 0.00 0.00 0.00 80 1010.6
20260510023341 65 232 4.3 8.7 0.00 0.00 0.00 80 1010.6
20260510023225 65 227 5.2 8.7 0.00 0.00 0.00 80 1010.6
20260510023156 65 292 4.3 7.0 0.00 0.00 0.00 80 1010.6
20260510023032 65 289 4.3 7.0 0.00 0.00 0.00 80 1010.6
20260510022951 65 234 3.5 7.0 0.00 0.00 0.00 80 1010.6
20260510022829 65 223 4.3 7.0 0.00 0.00 0.00 80 1010.4
20260510022728 65 191 4.3 8.7 0.00 0.00 0.00 80 1010.4
20260510022627 65 243 4.3 8.7 0.00 0.00 0.00 80 1010.4
20260510022527 65 288 3.5 8.7 0.00 0.00 0.00 80 1010.4
20260510022429 65 227 2.6 8.7 0.00 0.00 0.00 80 1010.4
20260510022327 65 232 4.3 8.7 0.00 0.00 0.00 80 1010.4
20260510022246 65 220 5.2 8.7 0.00 0.00 0.00 80 1010.4
20260510022204 65 205 4.3 8.7 0.00 0.00 0.00 80 1010.4
20260510022041 65 251 3.5 8.7 0.00 0.00 0.00 80 1010.4
20260510021940 65 178 5.2 8.7 0.00 0.00 0.00 80 1010.4
20260510021841 65 233 4.3 6.1 0.00 0.00 0.00 80 1010.4
20260510021725 65 184 4.3 6.1 0.00 0.00 0.00 80 1010.4
20260510021654 65 216 4.3 6.1 0.00 0.00 0.00 80 1010.4
20260510021533 65 188 3.5 6.1 0.00 0.00 0.00 80 1010.4
20260510021452 65 189 3.5 6.1 0.00 0.00 0.00 80 1010.4
20260510021329 65 176 3.5 6.1 0.00 0.00 0.00 80 1010.3
20260510021228 65 224 3.5 6.1 0.00 0.00 0.00 80 1010.3
20260510021127 65 208 2.6 6.1 0.00 0.00 0.00 80 1010.3
20260510021029 65 171 3.5 6.1 0.00 0.00 0.00 80 1010.3
20260510020952 65 220 4.3 6.1 0.00 0.00 0.00 80 1010.3
20260510020849 65 193 5.2 6.1 0.00 0.00 0.00 79 1010.3
20260510020747 65 199 3.5 6.1 0.00 0.00 0.00 79 1010.3
20260510020624 65 292 2.6 6.1 0.00 0.00 0.00 79 1010.3
20260510020524 65 171 3.5 6.1 0.00 0.00 0.00 79 1010.3
20260510020427 65 165 4.3 6.1 0.00 0.00 0.00 79 1010.3
20260510020326 65 164 4.3 6.1 0.00 0.00 0.00 79 1010.3
20260510020240 65 213 3.5 6.1 0.00 0.00 0.00 79 1010.3
20260510020150 65 226 4.3 6.1 0.00 0.00 0.00 79 1010.3
20260510020027 65 144 4.3 6.1 0.00 0.00 0.00 79 1010.3
20260510015926 65 168 2.6 6.1 0.00 0.00 0.00 79 1010.3
20260510015845 65 200 3.5 6.1 0.00 0.00 0.00 79 1010.1
20260510015804 65 191 3.5 6.1 0.00 0.00 0.00 79 1010.1
20260510015640 65 285 2.6 6.1 0.00 0.00 0.00 79 1010.1
20260510015538 65 319 2.6 7.0 0.00 0.00 0.00 79 1010.1
20260510015436 65 219 2.6 7.0 0.00 0.00 0.00 79 1010.1
20260510015339 65 178 2.6 7.0 0.00 0.00 0.00 79 1010.1
20260510015238 65 155 4.3 7.0 0.00 0.00 0.00 79 1010.1
20260510015136 65 165 3.5 7.0 0.00 0.00 0.00 79 1010.1
20260510015035 65 155 2.6 7.0 0.00 0.00 0.00 79 1010.1
20260510014934 65 161 2.6 7.0 0.00 0.00 0.00 79 1010.1
20260510014852 65 210 3.5 7.0 0.00 0.00 0.00 79 1010.1
20260510014749 65 313 5.2 7.0 0.00 0.00 0.00 79 1010.1
20260510014719 65 172 5.2 7.0 0.00 0.00 0.00 79 1010.1
20260510014540 65 278 4.3 6.1 0.00 0.00 0.00 79 1010.1
20260510014458 65 150 4.3 7.0 0.00 0.00 0.00 78 1010.1
20260510014335 65 248 3.5 7.0 0.00 0.00 0.00 78 1009.9
20260510014234 65 320 5.2 7.0 0.00 0.00 0.00 78 1009.9
20260510014132 65 241 4.3 7.0 0.00 0.00 0.00 79 1009.9
20260510014030 65 185 4.3 7.0 0.00 0.00 0.00 78 1009.9
20260510013930 65 174 3.5 7.0 0.00 0.00 0.00 79 1009.9
20260510013852 65 165 3.5 7.0 0.00 0.00 0.00 78 1009.9
20260510013730 65 217 3.5 7.0 0.00 0.00 0.00 78 1009.9
20260510013628 65 230 4.3 7.0 0.00 0.00 0.00 78 1009.9
20260510013531 65 143 4.3 7.0 0.00 0.00 0.00 78 1009.9
20260510013429 65 175 5.2 7.0 0.00 0.00 0.00 78 1009.9
20260510013328 65 169 5.2 7.0 0.00 0.00 0.00 78 1009.9
20260510013238 65 232 1.7 7.0 0.00 0.00 0.00 78 1009.9
20260510013152 65 268 1.7 8.7 0.00 0.00 0.00 78 1009.9
20260510013029 65 313 2.6 8.7 0.00 0.00 0.00 78 1009.9
20260510012932 65 188 3.5 8.7 0.00 0.00 0.00 78 1009.9
20260510012831 65 188 2.6 8.7 0.00 0.00 0.00 78 1009.7
20260510012729 65 329 3.5 8.7 0.00 0.00 0.00 78 1009.7
20260510012628 65 161 3.5 8.7 0.00 0.00 0.00 78 1009.7
20260510012527 65 222 4.3 8.7 0.00 0.00 0.00 78 1009.7
20260510012429 65 224 4.3 8.7 0.00 0.00 0.00 78 1009.7
20260510012327 66 167 6.1 8.7 0.00 0.00 0.00 78 1009.7
20260510012226 66 316 4.3 7.8 0.00 0.00 0.00 78 1009.7
20260510012124 66 254 3.5 7.8 0.00 0.00 0.00 78 1009.7
20260510012043 66 253 3.5 7.8 0.00 0.00 0.00 77 1009.7
20260510011921 66 268 3.5 7.8 0.00 0.00 0.00 78 1009.7
20260510011827 66 172 3.5 7.8 0.00 0.00 0.00 77 1009.7
20260510011727 66 240 6.1 7.8 0.00 0.00 0.00 77 1009.7
20260510011655 66 287 4.3 7.0 0.00 0.00 0.00 77 1009.7
20260510011532 66 232 4.3 7.0 0.00 0.00 0.00 77 1009.7
20260510011431 66 186 4.3 7.0 0.00 0.00 0.00 77 1009.7
20260510011329 66 202 4.3 7.0 0.00 0.00 0.00 77 1009.6
20260510011227 66 116 3.5 7.0 0.00 0.00 0.00 77 1009.6
20260510011125 66 137 3.5 7.0 0.00 0.00 0.00 77 1009.6
20260510011028 66 328 3.5 7.0 0.00 0.00 0.00 77 1009.6
20260510010947 66 258 5.2 7.0 0.00 0.00 0.00 77 1009.6
20260510010843 66 195 3.5 6.1 0.00 0.00 0.00 76 1009.6
20260510010741 66 154 4.3 6.1 0.00 0.00 0.00 76 1009.6
20260510010640 66 206 3.5 6.1 0.00 0.00 0.00 76 1009.6
20260510010537 66 227 2.6 6.1 0.00 0.00 0.00 76 1009.6
20260510010435 66 188 3.5 6.1 0.00 0.00 0.00 76 1009.6
20260510010337 66 171 3.5 6.1 0.00 0.00 0.00 76 1009.6
20260510010236 66 165 4.3 6.1 0.00 0.00 0.00 76 1009.6
20260510010204 66 319 5.2 6.1 0.00 0.00 0.00 76 1009.6
20260510010041 66 323 4.3 6.1 0.00 0.00 0.00 76 1009.6
20260510010003 66 171 3.5 6.1 0.00 0.00 0.00 76 1009.6
20260510005839 66 168 4.3 6.1 0.00 0.00 0.00 76 1009.4
20260510005737 66 332 5.2 6.1 0.00 0.00 0.00 75 1009.4
20260510005636 66 239 4.3 6.1 0.00 0.00 0.00 75 1009.4
20260510005600 66 291 3.5 6.1 0.00 0.00 0.00 75 1009.4
20260510005438 66 306 3.5 6.1 0.00 0.00 0.00 75 1009.4
20260510005335 66 161 3.5 6.1 0.00 0.00 0.00 75 1009.4
20260510005233 66 277 4.3 6.1 0.00 0.00 0.00 75 1009.4
20260510005132 66 329 4.3 6.1 0.00 0.00 0.00 75 1009.4
20260510005031 66 311 3.5 5.2 0.00 0.00 0.00 74 1009.4
20260510004929 66 271 2.6 5.2 0.00 0.00 0.00 74 1009.4
20260510004830 66 326 4.3 5.2 0.00 0.00 0.00 74 1009.4
20260510004739 66 312 2.6 5.2 0.00 0.00 0.00 74 1009.4
20260510004648 66 193 1.7 5.2 0.00 0.00 0.00 74 1009.4
20260510004547 66 284 2.6 5.2 0.00 0.00 0.00 75 1009.4
20260510004502 66 178 2.6 5.2 0.00 0.00 0.00 74 1009.4
20260510004341 66 313 2.6 5.2 0.00 0.00 0.00 74 1008.9
20260510004239 66 329 2.6 5.2 0.00 0.00 0.00 74 1008.9
20260510004124 66 330 2.6 5.2 0.00 0.00 0.00 74 1008.9
20260510004043 66 328 1.7 5.2 0.00 0.00 0.00 74 1008.9
20260510003941 66 320 3.5 5.2 0.00 0.00 0.00 74 1008.9
20260510003859 66 333 4.3 5.2 0.00 0.00 0.00 74 1008.9
20260510003758 66 332 3.5 5.2 0.00 0.00 0.00 74 1008.9
20260510003636 67 305 2.6 5.2 0.00 0.00 0.00 74 1008.9
20260510003534 67 287 3.5 5.2 0.00 0.00 0.00 74 1008.9
20260510003433 67 328 3.5 5.2 0.00 0.00 0.00 74 1008.9
20260510003336 67 328 2.6 4.3 0.00 0.00 0.00 74 1008.9
20260510003234 67 330 2.6 4.3 0.00 0.00 0.00 74 1008.9
20260510003204 67 316 3.5 4.3 0.00 0.00 0.00 74 1008.9
20260510003101 67 254 3.5 4.3 0.00 0.00 0.00 73 1008.9
20260510002938 67 323 1.7 2.6 0.00 0.00 0.00 73 1008.9
20260510002836 67 309 1.7 2.6 0.00 0.00 0.00 73 1008.9
20260510002736 67 309 1.7 2.6 0.00 0.00 0.00 72 1008.9
20260510002635 67 312 1.7 2.6 0.00 0.00 0.00 72 1008.9
20260510002537 67 315 2.6 2.6 0.00 0.00 0.00 72 1008.9
20260510002436 67 323 1.7 2.6 0.00 0.00 0.00 72 1008.9
20260510002335 67 322 0.9 2.6 0.00 0.00 0.00 71 1008.9
20260510002255 67 318 0.9 2.6 0.00 0.00 0.00 71 1008.9
20260510002152 67 316 0.9 2.6 0.00 0.00 0.00 72 1008.9
20260510002030 67 325 1.7 2.6 0.00 0.00 0.00 72 1008.9
20260510001928 67 320 1.7 2.6 0.00 0.00 0.00 72 1008.9
20260510001826 67 320 0.9 2.6 0.00 0.00 0.00 72 1008.9
20260510001739 67 326 1.7 1.7 0.00 0.00 0.00 72 1008.9
20260510001647 67 320 0.9 1.7 0.00 0.00 0.00 71 1008.9
20260510001525 67 326 1.7 1.7 0.00 0.00 0.00 71 1008.9
20260510001443 68 326 1.7 1.7 0.00 0.00 0.00 71 1008.9
20260510001342 68 316 0.9 1.7 0.00 0.00 0.00 71 1008.8
20260510001241 68 329 0.9 1.7 0.00 0.00 0.00 71 1008.8
20260510001159 68 320 0.0 1.7 0.00 0.00 0.00 71 1008.8
20260510001036 68 319 0.0 1.7 0.00 0.00 0.00 71 1008.8
20260510000939 68 319 0.0 1.7 0.00 0.00 0.00 71 1008.8
20260510000837 68 320 0.0 1.7 0.00 0.00 0.00 71 1008.8
20260510000754 68 319 0.0 1.7 0.00 0.00 0.00 69 1008.8
20260510000633 68 319 0.0 1.7 0.00 0.00 0.00 69 1008.8
20260510000551 68 320 0.0 1.7 0.00 0.00 0.00 68 1008.8
20260510000429 68 320 0.0 1.7 0.00 0.00 0.00 68 1008.8
20260510000328 68 319 0.0 1.7 0.00 0.00 0.00 68 1008.8
20260510000242 68 318 0.0 1.7 0.00 0.00 0.00 68 1008.8
20260510000151 68 323 0.0 0.9 0.00 0.00 0.00 68 1008.8
20260510000027 68 323 0.0 0.9 0.00 0.00 0.00 68 1008.8
20260509235926 68 323 0.0 0.9 0.00 0.00 0.00 68 1008.8
20260509235824 68 323 0.0 0.9 0.00 0.00 0.00 68 1008.7
20260509235721 68 325 0.0 0.9 0.00 0.00 0.00 67 1008.7
20260509235643 68 325 0.0 0.9 0.00 0.00 0.00 67 1008.7
20260509235526 68 325 0.0 0.0 0.00 0.00 0.00 67 1008.7
20260509235445 68 322 0.0 0.0 0.00 0.00 0.00 67 1008.7
20260509235403 68 325 0.0 0.0 0.00 0.00 0.00 68 1008.7
20260509235240 68 323 0.0 0.0 0.00 0.00 0.00 68 1008.7
20260509235159 68 322 0.0 0.0 0.00 0.00 0.00 68 1008.7
20260509235036 68 323 0.0 0.0 0.00 0.00 0.00 67 1008.7
20260509234933 68 322 0.0 0.0 0.00 0.00 0.00 68 1008.7
20260509234832 68 323 0.0 1.7 0.00 0.00 0.00 68 1008.7
20260509234735 68 322 0.0 1.7 0.00 0.00 0.00 69 1008.7
20260509234702 68 322 0.0 1.7 0.00 0.00 0.00 69 1008.7
20260509234539 68 323 0.0 1.7 0.00 0.00 0.00 69 1008.7
20260509234437 68 323 0.0 1.7 0.00 0.00 0.00 69 1008.7
20260509234336 68 322 0.0 1.7 0.00 0.00 0.00 69 1008.5
20260509234235 68 322 0.0 1.7 0.00 0.00 0.00 69 1008.5
20260509234153 68 323 0.0 1.7 0.00 0.00 0.00 69 1008.5
20260509234029 68 323 0.9 1.7 0.00 0.00 0.00 69 1008.5
20260509233932 68 322 0.9 2.6 0.00 0.00 0.00 69 1008.5
20260509233851 68 322 1.7 2.6 0.00 0.00 0.00 69 1008.5
20260509233728 68 322 1.7 2.6 0.00 0.00 0.00 69 1008.5
20260509233626 68 325 0.9 2.6 0.00 0.00 0.00 69 1008.5
20260509233544 68 320 0.9 2.6 0.00 0.00 0.00 69 1008.5
20260509233442 68 322 1.7 2.6 0.00 0.00 0.00 68 1008.5
20260509233341 68 323 1.7 2.6 0.00 0.00 0.00 69 1008.5
20260509233224 68 323 1.7 2.6 0.00 0.00 0.00 69 1008.5
20260509233156 68 326 0.9 2.6 0.00 0.00 0.00 69 1008.5
20260509233035 69 326 0.9 2.6 0.00 0.00 0.00 68 1008.5
20260509232933 69 328 1.7 2.6 0.00 0.00 0.00 68 1008.5
20260509232832 69 323 0.9 1.7 0.00 0.00 0.00 68 1008.7
20260509232730 69 322 0.9 1.7 0.00 0.00 0.00 68 1008.7
20260509232629 69 322 0.9 1.7 0.00 0.00 0.00 68 1008.7
20260509232531 69 323 0.9 1.7 0.00 0.00 0.00 68 1008.7
20260509232430 69 323 0.0 1.7 0.00 0.00 0.00 68 1008.7
20260509232330 69 325 0.9 1.7 0.00 0.00 0.00 68 1008.7
20260509232231 69 325 0.9 1.7 0.00 0.00 0.00 68 1008.7
20260509232130 69 323 0.0 1.7 0.00 0.00 0.00 69 1008.7
20260509232028 69 325 0.0 2.6 0.00 0.00 0.00 69 1008.7
20260509231927 69 326 0.9 2.6 0.00 0.00 0.00 69 1008.7
20260509231830 69 325 0.9 2.6 0.00 0.00 0.00 69 1008.7
20260509231740 69 322 0.0 2.6 0.00 0.00 0.00 69 1008.7
20260509231649 69 323 0.0 2.6 0.00 0.00 0.00 69 1008.7
20260509231547 69 323 0.0 2.6 0.00 0.00 0.00 69 1008.7
20260509231426 69 325 0.0 4.3 0.00 0.00 0.00 68 1008.7
20260509231327 69 325 0.9 4.3 0.00 0.00 0.00 68 1008.4
20260509231225 69 329 1.7 4.3 0.00 0.00 0.00 68 1008.4
20260509231128 69 325 0.0 4.3 0.00 0.00 0.00 68 1008.4
20260509231046 69 328 0.9 4.3 0.00 0.00 0.00 68 1008.4
20260509230924 69 323 0.9 4.3 0.00 0.00 0.00 68 1008.4
20260509230826 69 323 0.9 4.3 0.00 0.00 0.00 68 1008.4
20260509230724 69 328 0.9 4.3 0.00 0.00 0.00 68 1008.4
20260509230643 69 326 1.7 4.3 0.00 0.00 0.00 68 1008.4
20260509230600 69 328 2.6 4.3 0.00 0.00 0.00 68 1008.4
20260509230439 69 328 0.9 4.3 0.00 0.00 0.00 68 1008.4
20260509230324 69 328 1.7 2.6 0.00 0.00 0.00 68 1008.4
20260509230243 69 323 1.7 2.6 0.00 0.00 0.00 68 1008.4
20260509230215 69 328 0.9 2.6 0.00 0.00 0.00 68 1008.4
20260509230030 69 320 0.9 2.6 0.00 0.00 0.00 68 1008.4
20260509225929 69 328 1.7 2.6 0.00 0.00 0.00 68 1008.4
20260509225827 69 330 0.9 2.6 0.00 0.00 0.00 68 1008.3
20260509225726 69 326 0.0 1.7 0.00 0.00 0.00 68 1008.3
20260509225629 69 325 0.9 1.7 0.00 0.00 0.00 68 1008.3
20260509225529 69 322 0.0 1.7 0.00 0.00 0.00 68 1008.3
20260509225428 69 323 0.0 1.7 0.00 0.00 0.00 68 1008.3
20260509225327 69 323 0.0 2.6 0.00 0.00 0.00 68 1008.3
20260509225245 69 323 0.0 2.6 0.00 0.00 0.00 68 1008.3
20260509225204 69 320 0.9 2.6 0.00 0.00 0.00 68 1008.3
20260509225042 69 322 0.9 2.6 0.00 0.00 0.00 68 1008.3
20260509224924 69 322 0.0 4.3 0.00 0.00 0.00 68 1008.3
20260509224842 69 325 0.0 4.3 0.00 0.00 0.00 67 1008.3
20260509224740 69 323 0.9 4.3 0.00 0.00 0.00 67 1008.3
20260509224714 69 322 0.9 4.3 0.00 0.00 0.00 67 1008.3
20260509224531 69 322 0.9 4.3 0.00 0.00 0.00 67 1008.3
20260509224430 69 322 0.0 4.3 0.00 0.00 0.00 67 1008.3
20260509224328 69 322 0.9 4.3 0.00 0.00 0.00 67 1008.2
20260509224226 69 323 1.7 4.3 0.00 0.00 0.00 67 1008.2
20260509224128 69 323 2.6 4.3 0.00 0.00 0.00 67 1008.2
20260509224027 69 323 1.7 4.3 0.00 0.00 0.00 67 1008.2
20260509223925 69 326 1.7 4.3 0.00 0.00 0.00 66 1008.2
20260509223843 69 326 0.9 4.3 0.00 0.00 0.00 66 1008.2
20260509223741 69 316 2.6 4.3 0.00 0.00 0.00 67 1008.2
20260509223638 69 311 3.5 4.3 0.00 0.00 0.00 67 1008.2
20260509223536 69 322 1.7 4.3 0.00 0.00 0.00 67 1008.2
20260509223459 69 326 0.9 4.3 0.00 0.00 0.00 66 1008.2
20260509223336 69 316 0.9 4.3 0.00 0.00 0.00 67 1008.2
20260509223236 69 328 2.6 4.3 0.00 0.00 0.00 67 1008.2
20260509223207 69 326 2.6 4.3 0.00 0.00 0.00 67 1008.2
20260509223042 69 325 1.7 4.3 0.00 0.00 0.00 67 1008.2
20260509222940 69 318 1.7 4.3 0.00 0.00 0.00 67 1008.2
20260509222839 69 319 1.7 4.3 0.00 0.00 0.00 66 1008.1
20260509222738 69 330 1.7 4.3 0.00 0.00 0.00 66 1008.1
20260509222641 69 326 1.7 4.3 0.00 0.00 0.00 65 1008.1
20260509222539 69 329 2.6 4.3 0.00 0.00 0.00 65 1008.1
20260509222440 69 329 1.7 4.3 0.00 0.00 0.00 65 1008.1
20260509222340 69 322 0.9 4.3 0.00 0.00 0.00 66 1008.1
20260509222238 69 323 1.7 4.3 0.00 0.00 0.00 66 1008.1
20260509222136 69 316 2.6 4.3 0.00 0.00 0.00 66 1008.1
20260509222038 69 330 2.6 4.3 0.00 0.00 0.00 66 1008.1
20260509221937 69 322 0.9 4.3 0.00 0.00 0.00 67 1008.1
20260509221854 69 319 0.0 4.3 0.00 0.00 0.00 67 1008.1
20260509221801 69 320 0.0 4.3 0.00 0.00 0.00 67 1008.1
20260509221648 69 323 0.9 4.3 0.00 0.00 0.00 67 1008.1
20260509221524 69 325 0.0 4.3 0.00 0.00 0.00 67 1008.1
20260509221443 69 320 0.0 4.3 0.00 0.00 0.00 67 1008.1
20260509221340 69 319 0.0 4.3 0.00 0.00 0.00 66 1008.3
20260509221259 69 319 0.9 4.3 0.00 0.00 0.00 67 1008.3
20260509221136 69 320 1.7 4.3 0.00 0.00 0.00 68 1008.3
20260509221039 69 316 1.7 4.3 0.00 0.00 0.00 67 1008.3
20260509220939 69 325 2.6 4.3 0.00 0.00 0.00 67 1008.3
20260509220836 69 323 1.7 2.6 0.00 0.00 0.00 68 1008.3
20260509220735 69 322 0.9 2.6 0.00 0.00 0.00 68 1008.3
20260509220633 69 323 0.9 2.6 0.00 0.00 0.00 68 1008.3
20260509220532 69 318 0.9 2.6 0.00 0.00 0.00 68 1008.3
20260509220434 69 325 0.0 4.3 0.00 0.00 0.00 68 1008.3
20260509220333 69 320 0.0 5.2 0.00 0.00 0.00 68 1008.3
20260509220252 69 315 0.9 5.2 0.00 0.00 0.00 67 1008.3
20260509220202 69 318 0.9 5.2 0.00 0.00 0.00 67 1008.3
20260509220059 69 322 1.7 5.2 0.00 0.00 0.00 67 1008.3
20260509215937 69 325 0.9 5.2 0.00 0.00 0.00 67 1008.3
20260509215835 69 322 0.9 5.2 0.00 0.00 0.00 67 1008.2
20260509215734 69 325 1.7 5.2 0.00 0.00 0.00 69 1008.2
20260509215637 69 316 1.7 5.2 0.00 0.00 0.00 69 1008.2
20260509215536 69 320 2.6 5.2 0.00 0.00 0.00 69 1008.2
20260509215454 69 328 1.7 3.5 0.00 0.00 0.00 68 1008.2
20260509215331 69 326 0.9 4.3 0.00 0.00 0.00 68 1008.2
20260509215251 69 329 1.7 4.3 0.00 0.00 0.00 68 1008.2
20260509215127 69 320 1.7 4.3 0.00 0.00 0.00 68 1008.2
20260509215026 69 328 1.7 4.3 0.00 0.00 0.00 68 1008.2
20260509214928 69 319 2.6 4.3 0.00 0.00 0.00 68 1008.2
20260509214830 69 325 2.6 4.3 0.00 0.00 0.00 68 1008.2
20260509214740 69 323 1.7 5.2 0.00 0.00 0.00 68 1008.2
20260509214649 69 326 0.9 7.0 0.00 0.00 0.00 68 1008.2
20260509214527 69 329 1.7 7.0 0.00 0.00 0.00 68 1008.2
20260509214446 69 326 2.6 7.0 0.00 0.00 0.00 68 1008.2
20260509214343 69 329 1.7 7.0 0.00 0.00 0.00 68 1008.0
20260509214242 69 329 1.7 7.0 0.00 0.00 0.00 68 1008.0
20260509214124 69 323 1.7 7.0 0.00 0.00 0.00 67 1008.0
20260509214044 69 318 1.7 7.0 0.00 0.00 0.00 67 1008.0
20260509213942 69 322 2.6 7.0 0.00 0.00 0.00 68 1008.0
20260509213838 69 323 5.2 7.0 0.00 0.00 0.00 68 1008.0
20260509213737 69 322 4.3 7.0 0.00 0.00 0.00 68 1008.0
20260509213636 69 322 5.2 7.0 0.00 0.00 0.00 68 1008.0
20260509213533 69 325 2.6 7.0 0.00 0.00 0.00 68 1008.0
20260509213432 69 322 5.2 6.1 0.00 0.00 0.00 68 1008.0
20260509213355 69 337 3.5 6.1 0.00 0.00 0.00 68 1008.0
20260509213244 69 322 1.7 6.1 0.00 0.00 0.00 68 1008.0
20260509213154 69 335 1.7 6.1 0.00 0.00 0.00 68 1008.0
20260509213051 69 337 3.5 6.1 0.00 0.00 0.00 68 1008.0
20260509212949 69 330 2.6 6.1 0.00 0.00 0.00 67 1008.0
20260509212845 69 336 3.5 6.1 0.00 0.00 0.00 67 1008.1
20260509212743 69 336 4.3 6.1 0.00 0.00 0.00 67 1008.1
20260509212641 69 335 5.2 6.1 0.00 0.00 0.00 68 1008.1
20260509212541 69 328 1.7 5.2 0.00 0.00 0.00 69 1008.1
20260509212443 69 333 0.9 4.3 0.00 0.00 0.00 69 1008.1
20260509212402 69 328 0.9 4.3 0.00 0.00 0.00 69 1008.1
20260509212240 69 329 0.9 5.2 0.00 0.00 0.00 69 1008.1
20260509212140 69 332 0.9 5.2 0.00 0.00 0.00 68 1008.1
20260509212039 69 322 1.7 5.2 0.00 0.00 0.00 68 1008.1
20260509211936 69 329 1.7 5.2 0.00 0.00 0.00 69 1008.1
20260509211855 69 328 2.6 5.2 0.00 0.00 0.00 69 1008.1
20260509211744 69 329 1.7 5.2 0.00 0.00 0.00 69 1008.1
20260509211657 69 336 0.0 5.2 0.00 0.00 0.00 68 1008.1
20260509211537 69 333 0.0 5.2 0.00 0.00 0.00 68 1008.1
20260509211436 69 335 2.6 7.0 0.00 0.00 0.00 67 1008.1
20260509211335 69 343 3.5 7.0 0.00 0.00 0.00 67 1008.2
20260509211235 69 339 4.3 7.0 0.00 0.00 0.00 67 1008.2
20260509211132 69 340 3.5 7.0 0.00 0.00 0.00 67 1008.2
20260509211050 69 340 1.7 7.0 0.00 0.00 0.00 68 1008.2
20260509210948 69 342 1.7 7.0 0.00 0.00 0.00 68 1008.2
20260509210847 69 340 4.3 7.0 0.00 0.00 0.00 67 1008.2
20260509210749 69 318 3.5 7.0 0.00 0.00 0.00 68 1008.2
20260509210631 69 323 4.3 7.0 0.00 0.00 0.00 68 1008.2
20260509210533 69 326 4.3 7.0 0.00 0.00 0.00 68 1008.2
20260509210432 69 320 3.5 6.1 0.00 0.00 0.00 69 1008.2
20260509210352 69 337 1.7 5.2 0.00 0.00 0.00 69 1008.2
20260509210253 69 339 1.7 5.2 0.00 0.00 0.00 68 1008.2
20260509210224 69 322 0.9 5.2 0.00 0.00 0.00 69 1008.2
20260509210038 69 330 2.6 5.2 0.00 0.00 0.00 68 1008.2
20260509205941 69 328 3.5 5.2 0.00 0.00 0.00 68 1008.2
20260509205900 69 330 2.6 5.2 0.00 0.00 0.00 69 1008.3
20260509205738 69 333 0.9 5.2 0.00 0.00 0.00 70 1008.3
20260509205638 69 333 0.9 5.2 0.00 0.00 0.00 68 1008.3
20260509205538 69 318 1.7 6.1 0.00 0.00 0.00 68 1008.3
20260509205457 69 330 1.7 7.0 0.00 0.00 0.00 66 1008.3
20260509205334 69 333 1.7 7.8 0.00 0.00 0.00 66 1008.3
20260509205233 69 326 1.7 7.8 0.00 0.00 0.00 67 1008.3
20260509205135 69 332 0.0 7.8 0.00 0.00 0.00 67 1008.3
20260509205034 69 329 0.9 7.8 0.00 0.00 0.00 67 1008.3
20260509204933 69 333 3.5 7.8 0.00 0.00 0.00 67 1008.3
20260509204852 69 329 4.3 7.8 0.00 0.00 0.00 67 1008.3
20260509204809 69 329 3.5 7.8 0.00 0.00 0.00 68 1008.3
20260509204658 69 330 4.3 9.6 0.00 0.00 0.00 67 1008.3
20260509204537 69 329 5.2 10.4 0.00 0.00 0.00 67 1008.3
20260509204436 69 326 1.7 10.4 0.00 0.00 0.00 67 1008.3
20260509204338 69 330 2.6 10.4 0.00 0.00 0.00 67 1008.3
20260509204240 69 329 1.7 10.4 0.00 0.00 0.00 67 1008.3
20260509204139 69 328 1.7 11.3 0.00 0.00 0.00 68 1008.3
20260509204037 69 332 1.7 11.3 0.00 0.00 0.00 68 1008.3
20260509203936 69 322 2.6 11.3 0.00 0.00 0.00 68 1008.3
20260509203834 69 289 4.3 11.3 0.00 0.00 0.00 68 1008.3
20260509203737 69 329 6.1 11.3 0.00 0.00 0.00 68 1008.3
20260509203634 69 325 7.0 11.3 0.00 0.00 0.00 68 1008.3
20260509203532 69 325 6.1 11.3 0.00 0.00 0.00 68 1008.3
20260509203430 69 322 6.1 11.3 0.00 0.00 0.00 68 1008.3
20260509203329 69 298 4.3 11.3 0.00 0.00 0.00 68 1008.3
20260509203300 69 325 6.1 11.3 0.00 0.00 0.00 68 1008.3
20260509203150 69 319 4.3 8.7 0.00 0.00 0.00 69 1008.3
20260509203027 69 328 3.5 8.7 0.00 0.00 0.00 67 1008.3
20260509202929 69 329 3.5 8.7 0.00 0.00 0.00 67 1008.3
20260509202826 69 330 4.3 8.7 0.00 0.00 0.00 67 1008.5
20260509202725 69 330 2.6 8.7 0.00 0.00 0.00 68 1008.5
20260509202624 69 320 6.1 8.7 0.00 0.00 0.00 68 1008.5
20260509202542 69 309 6.1 8.7 0.00 0.00 0.00 69 1008.5
20260509202440 69 313 5.2 7.0 0.00 0.00 0.00 69 1008.5
20260509202358 69 320 3.5 7.0 0.00 0.00 0.00 69 1008.5
20260509202241 69 320 2.6 6.1 0.00 0.00 0.00 69 1008.5
20260509202139 69 329 1.7 7.0 0.00 0.00 0.00 68 1008.5
20260509202058 69 319 2.6 7.0 0.00 0.00 0.00 69 1008.5
20260509201935 69 329 2.6 8.7 0.00 0.00 0.00 69 1008.5
20260509201834 69 325 1.7 11.3 0.00 0.00 0.00 69 1008.5
20260509201743 69 326 4.3 11.3 0.00 0.00 0.00 69 1008.5
20260509201653 69 299 2.6 11.3 0.00 0.00 0.00 69 1008.5
20260509201530 69 318 2.6 11.3 0.00 0.00 0.00 70 1008.5
20260509201452 69 309 3.5 11.3 0.00 0.00 0.00 69 1008.5
20260509201330 69 326 4.3 11.3 0.00 0.00 0.00 69 1008.4
20260509201228 69 328 3.5 11.3 0.00 0.00 0.00 68 1008.4
20260509201146 69 323 4.3 11.3 0.00 0.00 0.00 68 1008.4
20260509201105 69 325 6.1 11.3 0.00 0.00 0.00 69 1008.4
20260509201003 69 326 4.3 11.3 0.00 0.00 0.00 70 1008.4
20260509200840 69 328 5.2 9.6 0.00 0.00 0.00 69 1008.4
20260509200737 69 294 4.3 8.7 0.00 0.00 0.00 68 1008.4
20260509200640 69 333 1.7 8.7 0.00 0.00 0.00 68 1008.4
20260509200539 69 325 0.9 8.7 0.00 0.00 0.00 69 1008.4
20260509200438 69 329 2.6 8.7 0.00 0.00 0.00 70 1008.4
20260509200357 69 329 2.6 8.7 0.00 0.00 0.00 70 1008.4
20260509200254 69 316 1.7 8.7 0.00 0.00 0.00 70 1008.4
20260509200225 69 316 2.6 8.7 0.00 0.00 0.00 69 1008.4
20260509200041 69 329 3.5 8.7 0.00 0.00 0.00 71 1008.4
20260509195940 69 326 5.2 8.7 0.00 0.00 0.00 71 1008.4
20260509195858 69 328 3.5 7.0 0.00 0.00 0.00 70 1008.3
20260509195740 69 320 1.7 6.1 0.00 0.00 0.00 70 1008.3
20260509195639 69 322 2.6 7.0 0.00 0.00 0.00 69 1008.3
20260509195537 69 326 2.6 7.0 0.00 0.00 0.00 69 1008.3
20260509195456 69 329 3.5 7.0 0.00 0.00 0.00 68 1008.3
20260509195335 69 330 0.9 7.0 0.00 0.00 0.00 68 1008.3
20260509195234 69 329 0.9 7.0 0.00 0.00 0.00 69 1008.3
20260509195133 69 329 1.7 7.0 0.00 0.00 0.00 69 1008.3
20260509195034 69 329 2.6 7.0 0.00 0.00 0.00 70 1008.3
20260509194932 69 326 3.5 7.0 0.00 0.00 0.00 69 1008.3
20260509194831 69 326 3.5 7.0 0.00 0.00 0.00 69 1008.3
20260509194731 69 329 4.3 7.0 0.00 0.00 0.00 69 1008.3
20260509194700 69 329 3.5 6.1 0.00 0.00 0.00 69 1008.3
20260509194539 69 313 2.6 7.0 0.00 0.00 0.00 68 1008.3
20260509194437 69 329 2.6 7.0 0.00 0.00 0.00 68 1008.3
20260509194355 69 328 0.9 7.0 0.00 0.00 0.00 68 1008.3
20260509194257 69 313 2.6 7.0 0.00 0.00 0.00 68 1008.3
20260509194134 69 329 1.7 7.0 0.00 0.00 0.00 68 1008.3
20260509194052 69 312 0.9 7.0 0.00 0.00 0.00 68 1008.3
20260509193931 69 329 2.6 7.0 0.00 0.00 0.00 68 1008.3
20260509193832 69 325 2.6 7.0 0.00 0.00 0.00 68 1008.3
20260509193731 69 325 4.3 7.0 0.00 0.00 0.00 69 1008.3
20260509193633 69 329 3.5 7.0 0.00 0.00 0.00 68 1008.3
20260509193535 69 329 3.5 7.0 0.00 0.00 0.00 69 1008.3
20260509193434 69 329 4.3 7.0 0.00 0.00 0.00 68 1008.3
20260509193332 69 326 4.3 7.0 0.00 0.00 0.00 69 1008.3
20260509193251 69 320 4.3 6.1 0.00 0.00 0.00 69 1008.3
20260509193224 69 328 3.5 6.1 0.00 0.00 0.00 69 1008.3
20260509193040 69 330 2.6 6.1 0.00 0.00 0.00 67 1008.3
20260509192939 69 289 0.9 5.2 0.00 0.00 0.00 68 1008.3
20260509192837 69 328 0.0 5.2 0.00 0.00 0.00 68 1008.5
20260509192740 70 329 1.7 5.2 0.00 0.00 0.00 67 1008.5
20260509192639 70 329 3.5 5.2 0.00 0.00 0.00 68 1008.5
20260509192539 70 329 1.7 5.2 0.00 0.00 0.00 68 1008.5
20260509192436 70 329 0.9 8.7 0.00 0.00 0.00 68 1008.5
20260509192335 70 330 1.7 8.7 0.00 0.00 0.00 68 1008.5
20260509192234 70 329 2.6 8.7 0.00 0.00 0.00 69 1008.5
20260509192133 70 329 2.6 8.7 0.00 0.00 0.00 69 1008.5
20260509192034 70 305 2.6 8.7 0.00 0.00 0.00 69 1008.5
20260509191933 70 329 2.6 8.7 0.00 0.00 0.00 69 1008.5
20260509191831 70 329 4.3 8.7 0.00 0.00 0.00 68 1008.5
20260509191739 70 325 1.7 8.7 0.00 0.00 0.00 68 1008.5
20260509191648 70 328 4.3 8.7 0.00 0.00 0.00 68 1008.5
20260509191526 70 325 2.6 7.8 0.00 0.00 0.00 68 1008.5
20260509191424 70 325 1.7 7.8 0.00 0.00 0.00 67 1008.5
20260509191342 70 326 2.6 7.8 0.00 0.00 0.00 68 1008.6
20260509191224 69 328 3.5 7.8 0.00 0.00 0.00 69 1008.6
20260509191144 69 311 5.2 7.8 0.00 0.00 0.00 70 1008.6
20260509191042 69 328 4.3 7.8 0.00 0.00 0.00 69 1008.6
20260509190940 69 330 0.9 5.2 0.00 0.00 0.00 69 1008.6
20260509190838 69 328 0.9 8.7 0.00 0.00 0.00 69 1008.6
20260509190736 69 312 0.9 8.7 0.00 0.00 0.00 70 1008.6
20260509190635 69 328 1.7 8.7 0.00 0.00 0.00 69 1008.6
20260509190539 69 326 1.7 8.7 0.00 0.00 0.00 69 1008.6
20260509190458 69 329 1.7 8.7 0.00 0.00 0.00 70 1008.6
20260509190355 69 328 0.9 8.7 0.00 0.00 0.00 70 1008.6
20260509190244 69 325 2.6 8.7 0.00 0.00 0.00 71 1008.6
20260509190153 69 328 4.3 8.7 0.00 0.00 0.00 70 1008.6
20260509190049 69 319 5.2 8.7 0.00 0.00 0.00 69 1008.6
20260509185925 69 329 0.9 8.7 0.00 0.00 0.00 68 1008.6
20260509185844 69 326 2.6 8.7 0.00 0.00 0.00 68 1008.8
20260509185727 69 329 2.6 8.7 0.00 0.00 0.00 69 1008.8
20260509185624 69 325 6.1 8.7 0.00 0.00 0.00 70 1008.8
20260509185543 69 325 4.3 7.0 0.00 0.00 0.00 69 1008.8
20260509185441 69 328 4.3 9.6 0.00 0.00 0.00 70 1008.8
20260509185400 69 328 5.2 9.6 0.00 0.00 0.00 70 1008.8
20260509185235 69 323 3.5 9.6 0.00 0.00 0.00 70 1008.8
20260509185133 69 326 1.7 9.6 0.00 0.00 0.00 70 1008.8
20260509185054 69 322 1.7 9.6 0.00 0.00 0.00 70 1008.8
20260509184932 69 329 2.6 9.6 0.00 0.00 0.00 70 1008.8
20260509184835 69 319 2.6 9.6 0.00 0.00 0.00 69 1008.8
20260509184740 69 319 3.5 9.6 0.00 0.00 0.00 69 1008.8
20260509184649 69 322 6.1 9.6 0.00 0.00 0.00 70 1008.8
20260509184526 69 292 4.3 9.6 0.00 0.00 0.00 71 1008.8
20260509184425 69 330 6.1 10.4 0.00 0.00 0.00 70 1008.8
20260509184328 69 313 2.6 10.4 0.00 0.00 0.00 69 1008.9
20260509184226 69 329 3.5 10.4 0.00 0.00 0.00 70 1008.9
20260509184129 69 323 2.6 10.4 0.00 0.00 0.00 70 1008.9
20260509184047 69 318 3.5 10.4 0.00 0.00 0.00 70 1008.9
20260509183924 69 328 0.0 10.4 0.00 0.00 0.00 70 1008.9
20260509183824 69 295 5.2 10.4 0.00 0.00 0.00 70 1008.9
20260509183742 69 323 5.2 10.4 0.00 0.00 0.00 70 1008.9
20260509183701 69 308 6.1 10.4 0.00 0.00 0.00 70 1008.9
20260509183539 69 296 0.9 7.8 0.00 0.00 0.00 70 1008.9
20260509183436 69 329 0.9 7.8 0.00 0.00 0.00 70 1008.9
20260509183335 69 329 4.3 7.8 0.00 0.00 0.00 71 1008.9
20260509183236 69 326 4.3 7.0 0.00 0.00 0.00 70 1008.9
20260509183205 69 315 2.6 7.0 0.00 0.00 0.00 70 1008.9
20260509183042 69 325 1.7 7.0 0.00 0.00 0.00 70 1008.9
20260509182941 69 294 4.3 7.0 0.00 0.00 0.00 69 1008.9
20260509182839 69 326 2.6 9.6 0.00 0.00 0.00 69 1009.0
20260509182737 69 309 2.6 9.6 0.00 0.00 0.00 69 1009.0
20260509182636 69 304 2.6 9.6 0.00 0.00 0.00 68 1009.0
20260509182538 69 329 3.5 9.6 0.00 0.00 0.00 68 1009.0
20260509182437 69 309 3.5 9.6 0.00 0.00 0.00 68 1009.0
20260509182334 69 289 1.7 9.6 0.00 0.00 0.00 68 1009.0
20260509182233 69 315 3.5 9.6 0.00 0.00 0.00 68 1009.0
20260509182130 69 299 4.3 9.6 0.00 0.00 0.00 68 1009.0
20260509182028 69 309 6.1 9.6 0.00 0.00 0.00 68 1009.0
20260509181931 69 308 4.3 9.6 0.00 0.00 0.00 69 1009.0
20260509181829 69 316 0.9 9.6 0.00 0.00 0.00 69 1009.0
20260509181727 69 316 0.0 9.6 0.00 0.00 0.00 70 1009.0
20260509181658 69 322 0.9 9.6 0.00 0.00 0.00 70 1009.0
20260509181556 69 322 1.7 9.6 0.00 0.00 0.00 69 1009.0
20260509181453 69 312 3.5 9.6 0.00 0.00 0.00 70 1009.0
20260509181331 69 278 1.7 9.6 0.00 0.00 0.00 70 1008.9
20260509181229 69 280 3.5 9.6 0.00 0.00 0.00 70 1008.9
20260509181135 69 275 7.0 9.6 0.00 0.00 0.00 70 1008.9
20260509181033 69 287 2.6 9.6 0.00 0.00 0.00 71 1008.9
20260509180931 69 277 1.7 9.6 0.00 0.00 0.00 71 1008.9
20260509180832 68 323 5.2 9.6 0.00 0.00 0.00 71 1008.9
20260509180731 68 328 2.6 9.6 0.00 0.00 0.00 71 1008.9
20260509180629 68 299 1.7 9.6 0.00 0.00 0.00 70 1008.9
20260509180528 68 315 1.7 9.6 0.00 0.00 0.00 71 1008.9
20260509180431 68 315 5.2 9.6 0.00 0.00 0.00 71 1008.9
20260509180331 68 285 7.0 9.6 0.00 0.00 0.00 71 1008.9
20260509180241 68 319 7.0 8.7 0.00 0.00 0.00 71 1008.9
20260509180150 68 315 4.3 7.8 0.00 0.00 0.00 72 1008.9
20260509180048 68 329 2.6 7.8 0.00 0.00 0.00 72 1008.9
20260509175925 68 329 6.1 7.8 0.00 0.00 0.00 72 1008.9
20260509175824 68 329 4.3 7.0 0.00 0.00 0.00 71 1009.0
20260509175727 68 330 3.5 6.1 0.00 0.00 0.00 71 1009.0
20260509175625 67 329 2.6 6.1 0.00 0.00 0.00 72 1009.0
20260509175543 67 312 2.6 6.1 0.00 0.00 0.00 72 1009.0
20260509175440 67 316 0.0 5.2 0.00 0.00 0.00 72 1009.0
20260509175340 67 326 0.9 8.7 0.00 0.00 0.00 72 1009.0
20260509175239 67 329 1.7 8.7 0.00 0.00 0.00 71 1009.0
20260509175136 67 292 0.9 8.7 0.00 0.00 0.00 70 1009.0
20260509175054 67 304 0.0 8.7 0.00 0.00 0.00 69 1009.0
20260509174951 67 313 0.9 8.7 0.00 0.00 0.00 70 1009.0
20260509174832 67 328 3.5 8.7 0.00 0.00 0.00 71 1009.0
20260509174743 68 309 1.7 8.7 0.00 0.00 0.00 70 1009.0
20260509174651 68 312 2.6 8.7 0.00 0.00 0.00 72 1009.0
20260509174530 68 328 4.3 8.7 0.00 0.00 0.00 72 1009.0
20260509174428 68 316 4.3 8.7 0.00 0.00 0.00 73 1009.0
20260509174327 67 316 3.5 7.8 0.00 0.00 0.00 73 1008.7
20260509174224 67 287 4.3 7.8 0.00 0.00 0.00 72 1008.7
20260509174127 67 323 5.2 7.8 0.00 0.00 0.00 71 1008.7
20260509174027 67 326 4.3 7.0 0.00 0.00 0.00 72 1008.7
20260509173945 67 325 2.6 6.1 0.00 0.00 0.00 73 1008.7
20260509173843 67 315 3.5 6.1 0.00 0.00 0.00 72 1008.7
20260509173742 67 316 3.5 6.1 0.00 0.00 0.00 72 1008.7
20260509173640 67 329 4.3 6.1 0.00 0.00 0.00 73 1008.7
20260509173600 67 308 3.5 6.1 0.00 0.00 0.00 72 1008.7
20260509173436 67 323 2.6 5.2 0.00 0.00 0.00 71 1008.7
20260509173353 67 312 1.7 5.2 0.00 0.00 0.00 71 1008.7
20260509173235 67 301 1.7 5.2 0.00 0.00 0.00 71 1008.7
20260509173205 67 316 1.7 5.2 0.00 0.00 0.00 71 1008.7
20260509173021 67 295 0.9 5.2 0.00 0.00 0.00 70 1008.7
20260509172943 67 325 1.7 5.2 0.00 0.00 0.00 71 1008.7
20260509172841 67 320 3.5 5.2 0.00 0.00 0.00 71 1009.0
20260509172739 68 320 4.3 5.2 0.00 0.00 0.00 72 1009.0
20260509172637 68 326 1.7 7.0 0.00 0.00 0.00 71 1009.0
20260509172539 68 284 0.0 9.6 0.00 0.00 0.00 71 1009.0
20260509172457 68 318 0.0 10.4 0.00 0.00 0.00 71 1009.0
20260509172334 68 308 0.9 11.3 0.00 0.00 0.00 70 1009.0
20260509172233 68 308 3.5 11.3 0.00 0.00 0.00 70 1009.0
20260509172131 68 318 2.6 11.3 0.00 0.00 0.00 70 1009.0
20260509172029 68 294 0.9 11.3 0.00 0.00 0.00 70 1009.0
20260509171928 68 329 0.9 11.3 0.00 0.00 0.00 70 1009.0
20260509171831 68 329 5.2 11.3 0.00 0.00 0.00 71 1009.0
20260509171729 68 326 6.1 11.3 0.00 0.00 0.00 71 1009.0
20260509171658 68 325 7.0 11.3 0.00 0.00 0.00 71 1009.0
20260509171535 68 329 7.8 11.3 0.00 0.00 0.00 70 1009.0
20260509171434 68 305 2.6 9.6 0.00 0.00 0.00 69 1009.0
20260509171333 68 320 1.7 9.6 0.00 0.00 0.00 70 1009.2
20260509171231 68 311 5.2 9.6 0.00 0.00 0.00 71 1009.2
20260509171133 68 325 4.3 9.6 0.00 0.00 0.00 71 1009.2
20260509171032 68 329 4.3 7.0 0.00 0.00 0.00 71 1009.2
20260509170931 68 315 2.6 7.0 0.00 0.00 0.00 71 1009.2
20260509170831 68 323 2.6 7.0 0.00 0.00 0.00 70 1009.2
20260509170749 68 326 3.5 7.8 0.00 0.00 0.00 70 1009.2
20260509170626 68 329 4.3 7.8 0.00 0.00 0.00 70 1009.2
20260509170525 68 313 1.7 7.8 0.00 0.00 0.00 70 1009.2
20260509170427 68 329 0.9 7.8 0.00 0.00 0.00 69 1009.2
20260509170326 68 328 0.9 8.7 0.00 0.00 0.00 70 1009.2
20260509170236 68 329 1.7 9.6 0.00 0.00 0.00 70 1009.2
20260509170146 68 299 2.6 9.6 0.00 0.00 0.00 71 1009.2
20260509170043 68 329 2.6 9.6 0.00 0.00 0.00 71 1009.2
20260509165941 68 329 5.2 9.6 0.00 0.00 0.00 72 1009.2
20260509165841 68 329 3.5 10.4 0.00 0.00 0.00 72 1009.4
20260509165738 68 295 2.6 10.4 0.00 0.00 0.00 71 1009.4
20260509165657 68 311 3.5 10.4 0.00 0.00 0.00 72 1009.4
20260509165538 68 325 2.6 10.4 0.00 0.00 0.00 72 1009.4
20260509165435 68 329 6.1 10.4 0.00 0.00 0.00 72 1009.4
20260509165334 68 330 3.5 10.4 0.00 0.00 0.00 71 1009.4
20260509165233 68 318 3.5 10.4 0.00 0.00 0.00 71 1009.4
20260509165130 68 329 2.6 10.4 0.00 0.00 0.00 71 1009.4
20260509165029 68 308 5.2 10.4 0.00 0.00 0.00 71 1009.4
20260509164948 68 294 6.1 10.4 0.00 0.00 0.00 71 1009.4
20260509164830 67 329 7.0 10.4 0.00 0.00 0.00 71 1009.4
20260509164749 67 328 6.1 13.9 0.00 0.00 0.00 71 1009.4
20260509164657 67 326 5.2 13.9 0.00 0.00 0.00 71 1009.4
20260509164538 67 325 4.3 13.9 0.00 0.00 0.00 72 1009.4
20260509164457 67 308 5.2 13.9 0.00 0.00 0.00 72 1009.4
20260509164332 67 329 5.2 13.9 0.00 0.00 0.00 72 1009.4
20260509164231 67 326 5.2 13.9 0.00 0.00 0.00 72 1009.4
20260509164129 67 323 2.6 13.9 0.00 0.00 0.00 72 1009.4
20260509164048 67 256 3.5 13.9 0.00 0.00 0.00 72 1009.4
20260509163930 67 330 7.8 13.9 0.00 0.00 0.00 71 1009.4
20260509163828 67 312 8.7 13.9 0.00 0.00 0.00 71 1009.4
20260509163747 67 330 6.1 13.9 0.00 0.00 0.00 72 1009.4
20260509163626 67 308 8.7 13.9 0.00 0.00 0.00 73 1009.4
20260509163527 67 306 4.3 9.6 0.00 0.00 0.00 73 1009.4
20260509163426 67 284 6.1 9.6 0.00 0.00 0.00 73 1009.4
20260509163324 67 328 3.5 8.7 0.00 0.00 0.00 73 1009.4
20260509163228 67 309 3.5 8.7 0.00 0.00 0.00 72 1009.4
20260509163200 67 294 1.7 8.7 0.00 0.00 0.00 72 1009.4
20260509163038 67 326 1.7 8.7 0.00 0.00 0.00 73 1009.4
20260509162937 67 330 3.5 8.7 0.00 0.00 0.00 74 1009.4
20260509162835 67 305 3.5 8.7 0.00 0.00 0.00 73 1009.4
20260509162732 67 305 5.2 8.7 0.00 0.00 0.00 73 1009.4
20260509162631 67 305 1.7 8.7 0.00 0.00 0.00 74 1009.4
20260509162535 66 315 0.9 8.7 0.00 0.00 0.00 73 1009.4
20260509162432 66 309 3.5 8.7 0.00 0.00 0.00 73 1009.4
20260509162332 66 330 3.5 8.7 0.00 0.00 0.00 74 1009.4
20260509162231 66 306 5.2 8.7 0.00 0.00 0.00 75 1009.4
20260509162130 66 320 4.3 8.7 0.00 0.00 0.00 75 1009.4
20260509162028 66 329 4.3 7.0 0.00 0.00 0.00 75 1009.4
20260509161927 66 311 4.3 7.0 0.00 0.00 0.00 74 1009.4
20260509161828 66 311 0.9 6.1 0.00 0.00 0.00 74 1009.4
20260509161738 66 329 2.6 6.1 0.00 0.00 0.00 74 1009.4
20260509161647 66 315 2.6 6.1 0.00 0.00 0.00 74 1009.4
20260509161525 66 308 2.6 6.1 0.00 0.00 0.00 75 1009.4
20260509161443 66 280 4.3 6.1 0.00 0.00 0.00 74 1009.4
20260509161341 66 329 2.6 7.8 0.00 0.00 0.00 74 1009.4
20260509161238 66 328 2.6 7.8 0.00 0.00 0.00 74 1009.4
20260509161139 66 329 0.9 7.8 0.00 0.00 0.00 74 1009.4
20260509161041 66 325 1.7 7.8 0.00 0.00 0.00 74 1009.4
20260509160939 66 326 2.6 7.8 0.00 0.00 0.00 74 1009.4
20260509160858 66 292 0.9 7.8 0.00 0.00 0.00 74 1009.4
20260509160735 66 295 2.6 7.8 0.00 0.00 0.00 74 1009.4
20260509160634 66 296 5.2 7.8 0.00 0.00 0.00 74 1009.4
20260509160532 66 309 4.3 7.8 0.00 0.00 0.00 74 1009.4
20260509160430 66 288 0.9 7.0 0.00 0.00 0.00 74 1009.4
20260509160333 66 302 3.5 7.0 0.00 0.00 0.00 75 1009.4
20260509160231 66 312 1.7 7.0 0.00 0.00 0.00 74 1009.4
20260509160201 66 288 3.5 7.0 0.00 0.00 0.00 74 1009.4
20260509160038 66 326 1.7 6.1 0.00 0.00 0.00 74 1009.4
20260509155957 66 329 2.6 6.1 0.00 0.00 0.00 74 1009.4
20260509155834 66 278 4.3 6.1 0.00 0.00 0.00 75 1009.3
20260509155732 66 316 5.2 7.0 0.00 0.00 0.00 75 1009.3
20260509155629 66 308 4.3 7.0 0.00 0.00 0.00 75 1009.3
20260509155532 66 316 3.5 7.0 0.00 0.00 0.00 74 1009.3
20260509155430 66 322 3.5 7.0 0.00 0.00 0.00 74 1009.3
20260509155328 65 295 0.9 7.0 0.00 0.00 0.00 74 1009.3
20260509155226 65 329 1.7 7.0 0.00 0.00 0.00 75 1009.3
20260509155124 65 326 2.6 7.0 0.00 0.00 0.00 76 1009.3
20260509155042 65 316 2.6 7.0 0.00 0.00 0.00 75 1009.3
20260509154925 65 295 4.3 7.0 0.00 0.00 0.00 76 1009.3
20260509154843 65 326 3.5 7.0 0.00 0.00 0.00 76 1009.3
20260509154741 65 325 3.5 7.0 0.00 0.00 0.00 76 1009.3
20260509154708 65 318 2.6 7.0 0.00 0.00 0.00 76 1009.3
20260509154546 65 329 4.3 7.0 0.00 0.00 0.00 77 1009.3
20260509154443 65 325 4.3 7.0 0.00 0.00 0.00 77 1009.3
20260509154341 65 330 4.3 6.1 0.00 0.00 0.00 77 1009.5
20260509154240 64 280 1.7 6.1 0.00 0.00 0.00 77 1009.5
20260509154138 64 304 0.9 6.1 0.00 0.00 0.00 76 1009.5
20260509154035 64 320 0.9 6.1 0.00 0.00 0.00 77 1009.5
20260509153937 64 285 1.7 6.1 0.00 0.00 0.00 77 1009.5
20260509153835 64 281 4.3 6.1 0.00 0.00 0.00 79 1009.5
20260509153734 64 325 5.2 6.1 0.00 0.00 0.00 79 1009.5
20260509153633 64 313 4.3 6.1 0.00 0.00 0.00 78 1009.5
20260509153531 64 309 3.5 6.1 0.00 0.00 0.00 78 1009.5
20260509153451 64 313 2.6 6.1 0.00 0.00 0.00 78 1009.5
20260509153328 64 308 2.6 6.1 0.00 0.00 0.00 79 1009.5
20260509153231 64 304 2.6 6.1 0.00 0.00 0.00 79 1009.5
20260509153202 64 326 1.7 6.1 0.00 0.00 0.00 79 1009.5
20260509153038 63 325 3.5 6.1 0.00 0.00 0.00 80 1009.5
20260509152937 63 284 4.3 6.1 0.00 0.00 0.00 80 1009.5
20260509152837 63 298 4.3 6.1 0.00 0.00 0.00 80 1009.6
20260509152756 63 313 2.6 6.1 0.00 0.00 0.00 79 1009.6
20260509152633 63 304 2.6 6.1 0.00 0.00 0.00 79 1009.6
20260509152553 63 272 0.9 5.2 0.00 0.00 0.00 78 1009.6
20260509152457 63 239 0.9 6.1 0.00 0.00 0.00 78 1009.6
20260509152334 63 203 0.9 6.1 0.00 0.00 0.00 79 1009.6
20260509152233 63 213 1.7 6.1 0.00 0.00 0.00 79 1009.6
20260509152132 63 196 2.6 6.1 0.00 0.00 0.00 80 1009.6
20260509152030 63 192 3.5 6.1 0.00 0.00 0.00 80 1009.6
20260509151928 63 263 1.7 7.0 0.00 0.00 0.00 80 1009.6
20260509151830 63 195 2.6 7.8 0.00 0.00 0.00 80 1009.6
20260509151733 63 302 1.7 7.8 0.00 0.00 0.00 82 1009.6
20260509151701 62 319 2.6 7.8 0.00 0.00 0.00 82 1009.6
20260509151539 62 288 4.3 7.8 0.00 0.00 0.00 82 1009.6
20260509151436 62 278 2.6 7.8 0.00 0.00 0.00 82 1009.6
20260509151333 62 263 1.7 7.8 0.00 0.00 0.00 83 1009.6
20260509151231 62 309 0.9 7.8 0.00 0.00 0.00 83 1009.6
20260509151129 62 318 3.5 7.8 0.00 0.00 0.00 83 1009.6
20260509151027 62 330 5.2 7.8 0.00 0.00 0.00 83 1009.6
20260509150932 62 329 1.7 6.1 0.00 0.00 0.00 83 1009.6
20260509150830 62 329 1.7 7.8 0.00 0.00 0.00 84 1009.6
20260509150729 62 319 1.7 7.8 0.00 0.00 0.00 85 1009.6
20260509150628 61 320 2.6 7.8 0.00 0.00 0.00 85 1009.6
20260509150526 61 284 3.5 7.8 0.00 0.00 0.00 85 1009.6
20260509150425 61 248 3.5 7.8 0.00 0.00 0.00 86 1009.6
20260509150324 61 306 1.7 7.8 0.00 0.00 0.00 86 1009.6
20260509150239 61 311 3.5 7.8 0.00 0.00 0.00 86 1009.6
20260509150148 61 311 1.7 7.8 0.00 0.00 0.00 86 1009.6
20260509150045 61 302 6.1 7.8 0.00 0.00 0.00 86 1009.6
20260509145923 61 328 5.2 7.0 0.00 0.00 0.00 87 1009.6
20260509145825 61 318 3.5 7.8 0.00 0.00 0.00 87 1009.6
20260509145743 61 325 2.6 7.8 0.00 0.00 0.00 87 1009.6
20260509145640 60 229 2.6 7.8 0.00 0.00 0.00 87 1009.6
20260509145538 60 274 1.7 7.8 0.00 0.00 0.00 87 1009.6
20260509145500 60 285 0.9 7.8 0.00 0.00 0.00 87 1009.6
20260509145338 60 257 2.6 7.8 0.00 0.00 0.00 88 1009.6
20260509145236 60 257 2.6 7.8 0.00 0.00 0.00 88 1009.6
20260509145155 60 311 5.2 8.7 0.00 0.00 0.00 88 1009.6
20260509145033 60 291 4.3 8.7 0.00 0.00 0.00 88 1009.6
20260509144932 60 241 1.7 8.7 0.00 0.00 0.00 88 1009.6
20260509144849 60 223 5.2 8.7 0.00 0.00 0.00 88 1009.6
20260509144738 60 256 3.5 8.7 0.00 0.00 0.00 88 1009.6
20260509144650 60 179 4.3 8.7 0.00 0.00 0.00 88 1009.6
20260509144528 60 296 4.3 8.7 0.00 0.00 0.00 88 1009.6
20260509144426 60 280 3.5 8.7 0.00 0.00 0.00 88 1009.6
20260509144324 60 256 3.5 8.7 0.00 0.00 0.00 89 1009.8
20260509144242 60 330 4.3 8.7 0.00 0.00 0.00 89 1009.8
20260509144140 59 288 1.7 8.7 0.00 0.00 0.00 89 1009.8
20260509144039 59 239 1.7 8.7 0.00 0.00 0.00 89 1009.8
20260509143958 59 176 3.5 8.7 0.00 0.00 0.00 89 1009.8
20260509143841 59 287 3.5 8.7 0.00 0.00 0.00 89 1009.8
20260509143739 59 332 3.5 8.7 0.00 0.00 0.00 89 1009.8
20260509143657 59 332 2.6 8.7 0.00 0.00 0.00 89 1009.8
20260509143535 59 323 4.3 8.7 0.00 0.00 0.00 89 1009.8
20260509143433 59 330 4.3 8.7 0.00 0.00 0.00 89 1009.8
20260509143352 59 332 4.3 8.7 0.00 0.00 0.00 89 1009.8
20260509143227 59 333 3.5 7.0 0.00 0.00 0.00 89 1009.8
20260509143157 59 332 4.3 7.0 0.00 0.00 0.00 89 1009.8
20260509143038 59 332 3.5 7.0 0.00 0.00 0.00 89 1009.8
20260509142937 59 332 3.5 7.0 0.00 0.00 0.00 89 1009.8
20260509142836 59 309 3.5 7.0 0.00 0.00 0.00 89 1009.7
20260509142734 59 332 4.3 7.0 0.00 0.00 0.00 89 1009.7
20260509142633 59 332 4.3 7.0 0.00 0.00 0.00 89 1009.7
20260509142530 59 332 2.6 7.0 0.00 0.00 0.00 89 1009.7
20260509142430 59 332 1.7 7.0 0.00 0.00 0.00 89 1009.7
20260509142333 59 328 4.3 7.0 0.00 0.00 0.00 89 1009.7
20260509142232 59 330 3.5 7.0 0.00 0.00 0.00 89 1009.7
20260509142130 59 332 3.5 10.4 0.00 0.00 0.00 89 1009.7
20260509142029 59 332 5.2 10.4 0.00 0.00 0.00 89 1009.7
20260509141946 59 254 2.6 10.4 0.00 0.00 0.00 89 1009.7
20260509141825 59 332 3.5 10.4 0.00 0.00 0.00 90 1009.7
20260509141724 59 328 2.6 10.4 0.00 0.00 0.00 90 1009.7
20260509141658 59 333 2.6 10.4 0.00 0.00 0.00 90 1009.7
20260509141536 59 332 5.2 10.4 0.00 0.00 0.00 90 1009.7
20260509141454 59 332 3.5 10.4 0.00 0.00 0.00 90 1009.7
20260509141352 58 294 7.0 10.4 0.00 0.00 0.00 90 1009.3
20260509141249 58 336 7.0 10.4 0.00 0.00 0.00 90 1009.3
20260509141209 58 332 5.2 8.7 0.00 0.00 0.00 90 1009.3
20260509141106 58 332 4.3 8.7 0.00 0.00 0.00 90 1009.3
20260509140943 58 332 3.5 8.7 0.00 0.00 0.00 90 1009.3
20260509140841 58 332 3.5 8.7 0.00 0.00 0.00 90 1009.3
20260509140724 58 332 5.2 8.7 0.00 0.00 0.00 90 1009.3
20260509140643 58 306 7.0 8.7 0.00 0.00 0.00 90 1009.3
20260509140541 58 332 4.3 7.0 0.00 0.00 0.00 90 1009.3
20260509140440 58 322 3.5 7.0 0.00 0.00 0.00 90 1009.3
20260509140338 58 261 1.7 7.0 0.00 0.00 0.00 90 1009.3
20260509140231 58 332 3.5 9.6 0.00 0.00 0.00 90 1009.3
20260509140200 58 332 3.5 9.6 0.00 0.00 0.00 90 1009.3
20260509140057 58 333 1.7 9.6 0.00 0.00 0.00 90 1009.3
20260509135934 58 332 2.6 9.6 0.00 0.00 0.00 90 1009.3
20260509135837 58 330 3.5 9.6 0.00 0.00 0.00 90 1008.9
20260509135734 58 263 4.3 9.6 0.00 0.00 0.00 90 1008.9
20260509135633 58 332 6.1 9.6 0.00 0.00 0.00 90 1008.9
20260509135532 58 332 5.2 9.6 0.00 0.00 0.00 90 1008.9
20260509135431 58 332 7.0 9.6 0.00 0.00 0.00 90 1008.9
20260509135330 58 316 7.0 9.6 0.00 0.00 0.00 90 1008.9
20260509135236 58 332 7.8 9.6 0.00 0.00 0.00 90 1008.9
20260509135135 58 333 4.3 7.0 0.00 0.00 0.00 90 1008.9
20260509135034 58 329 2.6 8.7 0.00 0.00 0.00 90 1008.9
20260509134932 58 332 3.5 8.7 0.00 0.00 0.00 91 1008.9
20260509134832 58 335 5.2 8.7 0.00 0.00 0.00 91 1008.9
20260509134729 58 332 5.2 8.7 0.00 0.00 0.00 91 1008.9
20260509134700 58 332 5.2 8.7 0.00 0.00 0.00 91 1008.9
20260509134541 58 333 5.2 8.7 0.00 0.00 0.00 91 1008.9
20260509134440 58 330 4.3 9.6 0.00 0.00 0.00 91 1008.9
20260509134338 58 332 4.3 9.6 0.00 0.00 0.00 91 1008.7
20260509134235 58 333 6.1 9.6 0.00 0.00 0.00 91 1008.7
20260509134134 58 330 5.2 9.6 0.00 0.00 0.00 91 1008.7
20260509134033 58 332 6.1 9.6 0.00 0.00 0.00 91 1008.7
20260509133931 58 330 4.3 9.6 0.00 0.00 0.00 91 1008.7
20260509133837 58 332 2.6 9.6 0.00 0.00 0.00 91 1008.7
20260509133734 58 332 3.5 9.6 0.00 0.00 0.00 91 1008.7
20260509133652 58 332 7.0 9.6 0.00 0.00 0.00 91 1008.7
20260509133530 58 333 5.2 8.7 0.00 0.00 0.00 91 1008.7
20260509133428 58 313 6.1 8.7 0.00 0.00 0.00 91 1008.7
20260509133326 58 332 4.3 8.7 0.00 0.00 0.00 91 1008.7
20260509133236 58 261 3.5 8.7 0.00 0.00 0.00 91 1008.7
20260509133146 58 309 7.0 8.7 0.00 0.00 0.00 91 1008.7
20260509133027 58 332 6.1 8.7 0.00 0.00 0.00 91 1008.7
20260509132946 58 330 3.5 11.3 0.00 0.00 0.00 91 1008.7
20260509132843 58 330 2.6 11.3 0.00 0.00 0.00 91 1008.8
20260509132743 58 305 3.5 11.3 0.00 0.00 0.00 91 1008.8
20260509132641 58 330 4.3 11.3 0.00 0.00 0.00 91 1008.8
20260509132540 58 312 3.5 11.3 0.00 0.00 0.00 91 1008.8
20260509132438 58 332 4.3 11.3 0.00 0.00 0.00 91 1008.8
20260509132336 58 274 4.3 11.3 0.00 0.00 0.00 91 1008.8
20260509132239 58 332 3.5 11.3 0.00 0.00 0.00 91 1008.8
20260509132137 58 330 5.2 11.3 0.00 0.00 0.00 91 1008.8
20260509132037 58 332 7.8 11.3 0.00 0.00 0.00 91 1008.8
20260509131955 58 332 6.1 9.6 0.00 0.00 0.00 91 1008.8
20260509131832 58 332 2.6 9.6 0.00 0.00 0.00 91 1008.8
20260509131731 58 332 3.5 9.6 0.00 0.00 0.00 91 1008.8
20260509131701 57 330 4.3 9.6 0.00 0.00 0.00 91 1008.8
20260509131542 57 326 7.0 9.6 0.00 0.00 0.00 91 1008.8
20260509131502 57 330 7.8 9.6 0.00 0.00 0.00 91 1008.8
20260509131337 57 332 7.0 9.6 0.00 0.00 0.00 91 1008.8
20260509131236 57 328 3.5 9.6 0.00 0.00 0.00 91 1008.8
20260509131134 57 332 5.2 9.6 0.00 0.00 0.00 91 1008.8
20260509131033 57 311 6.1 9.6 0.00 0.00 0.00 91 1008.8
20260509130931 57 332 5.2 11.3 0.00 0.00 0.00 91 1008.8
20260509130830 57 332 7.0 11.3 0.00 0.00 0.00 91 1008.8
20260509130752 57 328 7.0 11.3 0.00 0.00 0.00 91 1008.8
20260509130630 57 291 4.3 11.3 0.00 0.00 0.00 91 1008.8
20260509130530 57 332 4.3 11.3 0.00 0.00 0.00 91 1008.8
20260509130428 57 332 5.2 11.3 0.00 0.00 0.00 91 1008.8
20260509130329 57 285 6.1 11.3 0.00 0.00 0.00 91 1008.8
20260509130240 57 330 4.3 11.3 0.00 0.00 0.00 91 1008.8
20260509130150 57 333 8.7 11.3 0.00 0.00 0.00 91 1008.8
20260509130031 57 330 9.6 11.3 0.00 0.00 0.00 91 1008.8
20260509125949 57 288 6.1 11.3 0.00 0.00 0.00 91 1008.8
20260509125827 57 288 5.2 11.3 0.00 0.00 0.00 91 1009.0
20260509125724 57 322 7.0 11.3 0.00 0.00 0.00 92 1009.0
20260509125643 57 277 3.5 8.7 0.00 0.00 0.00 92 1009.0
20260509125541 57 328 4.3 8.7 0.00 0.00 0.00 92 1009.0
20260509125440 57 332 5.2 9.6 0.00 0.00 0.00 92 1009.0
20260509125337 57 328 3.5 9.6 0.00 0.00 0.00 92 1009.0
20260509125235 57 311 4.3 9.6 0.00 0.00 0.00 91 1009.0
20260509125137 57 302 5.2 9.6 0.00 0.00 0.00 91 1009.0
20260509125056 57 284 5.2 11.3 0.00 0.00 0.00 91 1009.0
20260509124932 57 299 5.2 11.3 0.00 0.00 0.00 91 1009.0
20260509124833 57 315 5.2 11.3 0.00 0.00 0.00 91 1009.0
20260509124751 57 332 6.1 11.3 0.00 0.00 0.00 91 1009.0
20260509124701 57 325 7.0 11.3 0.00 0.00 0.00 91 1009.0
20260509124538 57 320 4.3 11.3 0.00 0.00 0.00 91 1009.0
20260509124457 57 267 5.2 11.3 0.00 0.00 0.00 91 1009.0
20260509124339 57 296 6.1 11.3 0.00 0.00 0.00 91 1009.1
20260509124238 57 326 7.0 11.3 0.00 0.00 0.00 91 1009.1
20260509124136 57 308 4.3 11.3 0.00 0.00 0.00 91 1009.1
20260509124056 57 329 3.5 11.3 0.00 0.00 0.00 91 1009.1
20260509123934 57 322 6.1 11.3 0.00 0.00 0.00 91 1009.1
20260509123853 57 316 6.1 11.3 0.00 0.00 0.00 91 1009.1
20260509123729 57 315 7.8 11.3 0.00 0.00 0.00 91 1009.1
20260509123628 57 318 8.7 11.3 0.00 0.00 0.00 91 1009.1
20260509123530 57 304 6.1 10.4 0.00 0.00 0.00 91 1009.1
20260509123430 57 326 4.3 10.4 0.00 0.00 0.00 91 1009.1
20260509123329 57 325 4.3 10.4 0.00 0.00 0.00 91 1009.1
20260509123258 57 315 7.0 10.4 0.00 0.00 0.00 91 1009.1
20260509123148 57 315 5.2 10.4 0.00 0.00 0.00 91 1009.1
20260509123026 57 329 6.1 10.4 0.00 0.00 0.00 91 1009.1
20260509122944 57 322 6.1 10.4 0.00 0.00 0.00 91 1009.1
20260509122902 57 329 4.3 10.4 0.00 0.00 0.00 91 1009.0
20260509122745 57 323 7.0 10.4 0.00 0.00 0.00 91 1009.0
20260509122642 57 322 7.0 10.4 0.00 0.00 0.00 91 1009.0
20260509122540 57 322 5.2 8.7 0.00 0.00 0.00 91 1009.0
20260509122438 57 312 5.2 8.7 0.00 0.00 0.00 91 1009.0
20260509122337 57 332 3.5 9.6 0.00 0.00 0.00 91 1009.0
20260509122236 57 339 5.2 9.6 0.00 0.00 0.00 91 1009.0
20260509122134 57 318 5.2 9.6 0.00 0.00 0.00 91 1009.0
20260509122039 57 332 4.3 9.6 0.00 0.00 0.00 91 1009.0
20260509121958 57 326 5.2 10.4 0.00 0.00 0.00 91 1009.0
20260509121834 57 330 6.1 10.4 0.00 0.00 0.00 91 1009.0
20260509121743 57 328 6.1 10.4 0.00 0.00 0.00 91 1009.0
20260509121652 57 336 7.0 10.4 0.00 0.00 0.00 91 1009.0
20260509121530 57 332 4.3 10.4 0.00 0.00 0.00 91 1009.0
20260509121430 57 330 2.6 10.4 0.00 0.00 0.00 91 1009.0
20260509121328 57 315 7.0 10.4 0.00 0.00 0.00 91 1008.8
20260509121230 57 332 7.0 10.4 0.00 0.00 0.00 91 1008.8
20260509121151 57 323 5.2 10.4 0.00 0.00 0.00 91 1008.8
20260509121028 57 336 7.0 10.4 0.00 0.00 0.00 91 1008.8
20260509120927 57 330 5.2 10.4 0.00 0.00 0.00 91 1008.8
20260509120824 57 328 5.2 10.4 0.00 0.00 0.00 91 1008.8
20260509120743 57 330 4.3 11.3 0.00 0.00 0.00 91 1008.8
20260509120642 57 325 4.3 11.3 0.00 0.00 0.00 91 1008.8
20260509120545 57 332 4.3 11.3 0.00 0.00 0.00 91 1008.8
20260509120504 57 299 7.0 11.3 0.00 0.00 0.00 91 1008.8
20260509120342 57 329 7.0 11.3 0.00 0.00 0.00 91 1008.8
20260509120240 57 323 6.1 11.3 0.00 0.00 0.00 91 1008.8
20260509120212 57 330 7.0 11.3 0.00 0.00 0.00 91 1008.8
20260509120027 57 332 6.1 11.3 0.00 0.00 0.00 91 1008.8
20260509115945 57 298 6.1 11.3 0.00 0.00 0.00 91 1008.8
20260509115905 57 304 6.1 11.3 0.00 0.00 0.00 91 1008.4
20260509115725 57 316 5.2 8.7 0.00 0.00 0.00 91 1008.4
20260509115643 57 289 3.5 7.0 0.00 0.00 0.00 91 1008.4
20260509115602 57 330 4.3 7.0 0.00 0.00 0.00 91 1008.4
20260509115459 57 332 4.3 7.8 0.00 0.00 0.00 91 1008.4
20260509115335 57 332 4.3 7.8 0.00 0.00 0.00 91 1008.4
20260509115234 57 332 4.3 7.8 0.00 0.00 0.00 91 1008.4
20260509115152 57 332 4.3 7.8 0.00 0.00 0.00 91 1008.4
20260509115029 57 330 4.3 7.8 0.00 0.00 0.00 91 1008.4
20260509114928 57 330 2.6 7.8 0.00 0.00 0.00 91 1008.4
20260509114830 57 328 4.3 7.8 0.00 0.00 0.00 91 1008.4
20260509114727 57 332 3.5 7.8 0.00 0.00 0.00 91 1008.4
20260509114657 57 288 5.2 7.8 0.00 0.00 0.00 91 1008.4
20260509114538 57 318 3.5 7.0 0.00 0.00 0.00 91 1008.4
20260509114436 57 282 3.5 7.0 0.00 0.00 0.00 91 1008.4
20260509114337 57 333 4.3 7.0 0.00 0.00 0.00 91 1008.1
20260509114236 57 313 3.5 6.1 0.00 0.00 0.00 91 1008.1
20260509114138 57 332 2.6 6.1 0.00 0.00 0.00 91 1008.1
20260509114037 57 332 2.6 6.1 0.00 0.00 0.00 91 1008.1
20260509113935 57 332 2.6 6.1 0.00 0.00 0.00 91 1008.1
20260509113854 57 330 1.7 6.1 0.00 0.00 0.00 91 1008.1
20260509113731 57 333 2.6 6.1 0.00 0.00 0.00 91 1008.1
20260509113649 57 332 4.3 6.1 0.00 0.00 0.00 91 1008.1
20260509113526 57 333 4.3 6.1 0.00 0.00 0.00 91 1008.1
20260509113424 57 328 3.5 6.1 0.00 0.00 0.00 90 1008.1
20260509113327 57 294 2.6 6.1 0.00 0.00 0.00 90 1008.1
20260509113238 57 332 1.7 6.1 0.00 0.00 0.00 90 1008.1
20260509113148 57 333 1.7 6.1 0.00 0.00 0.00 90 1008.1
20260509113025 57 332 2.6 6.1 0.00 0.00 0.00 90 1008.1
20260509112943 57 330 2.6 7.0 0.00 0.00 0.00 90 1008.1
20260509112842 57 329 2.6 7.0 0.00 0.00 0.00 90 1008.0
20260509112740 57 294 2.6 7.0 0.00 0.00 0.00 90 1008.0
20260509112643 57 316 1.7 7.0 0.00 0.00 0.00 90 1008.0
20260509112540 57 332 2.6 8.7 0.00 0.00 0.00 90 1008.0
20260509112459 57 330 2.6 8.7 0.00 0.00 0.00 90 1008.0
20260509112336 57 330 2.6 8.7 0.00 0.00 0.00 90 1008.0
20260509112256 57 332 2.6 8.7 0.00 0.00 0.00 90 1008.0
20260509112133 57 316 3.5 8.7 0.00 0.00 0.00 90 1008.0
20260509112032 57 332 5.2 8.7 0.00 0.00 0.00 90 1008.0
20260509111950 57 302 1.7 8.7 0.00 0.00 0.00 90 1008.0
20260509111832 57 292 0.9 8.7 0.00 0.00 0.00 90 1008.0
20260509111742 57 320 5.2 8.7 0.00 0.00 0.00 90 1008.0
20260509111651 57 326 4.3 7.8 0.00 0.00 0.00 90 1008.0
20260509111528 57 322 0.9 6.1 0.00 0.00 0.00 90 1008.0
20260509111446 57 332 2.6 8.7 0.00 0.00 0.00 90 1008.0
20260509111324 57 325 4.3 8.7 0.00 0.00 0.00 90 1007.9
20260509111242 57 330 3.5 8.7 0.00 0.00 0.00 90 1007.9
20260509111141 57 330 3.5 8.7 0.00 0.00 0.00 90 1007.9
20260509111024 57 278 4.3 8.7 0.00 0.00 0.00 90 1007.9
20260509110943 57 330 3.5 8.7 0.00 0.00 0.00 90 1007.9
20260509110842 57 263 2.6 8.7 0.00 0.00 0.00 90 1007.9
20260509110741 57 316 3.5 9.6 0.00 0.00 0.00 90 1007.9
20260509110639 57 285 3.5 9.6 0.00 0.00 0.00 90 1007.9
20260509110538 57 304 6.1 9.6 0.00 0.00 0.00 90 1007.9
20260509110435 57 323 4.3 9.6 0.00 0.00 0.00 90 1007.9
20260509110358 57 326 5.2 9.6 0.00 0.00 0.00 90 1007.9
20260509110233 57 328 2.6 9.6 0.00 0.00 0.00 90 1007.9
20260509110204 57 330 3.5 9.6 0.00 0.00 0.00 90 1007.9
20260509110041 57 313 3.5 9.6 0.00 0.00 0.00 90 1007.9
20260509105939 57 257 3.5 9.6 0.00 0.00 0.00 90 1007.9
20260509105838 57 312 2.6 9.6 0.00 0.00 0.00 90 1007.5
20260509105736 57 316 1.7 9.6 0.00 0.00 0.00 90 1007.5
20260509105655 57 322 1.7 9.6 0.00 0.00 0.00 90 1007.5
20260509105537 57 330 3.5 9.6 0.00 0.00 0.00 90 1007.5
20260509105436 57 271 4.3 9.6 0.00 0.00 0.00 90 1007.5
20260509105333 57 260 5.2 9.6 0.00 0.00 0.00 90 1007.5
20260509105233 57 333 4.3 9.6 0.00 0.00 0.00 90 1007.5
20260509105130 57 260 2.6 8.7 0.00 0.00 0.00 90 1007.5
20260509105029 57 330 3.5 8.7 0.00 0.00 0.00 90 1007.5
20260509104928 57 326 4.3 8.7 0.00 0.00 0.00 90 1007.5
20260509104832 57 282 4.3 8.7 0.00 0.00 0.00 90 1007.5
20260509104730 57 311 6.1 8.7 0.00 0.00 0.00 90 1007.5
20260509104659 57 271 5.2 9.6 0.00 0.00 0.00 90 1007.5
20260509104536 57 294 4.3 9.6 0.00 0.00 0.00 90 1007.5
20260509104435 57 325 5.2 9.6 0.00 0.00 0.00 90 1007.5
20260509104333 57 335 4.3 9.6 0.00 0.00 0.00 90 1007.3
20260509104231 57 265 3.5 9.6 0.00 0.00 0.00 90 1007.3
20260509104134 57 299 2.6 9.6 0.00 0.00 0.00 90 1007.3
20260509104032 57 325 3.5 9.6 0.00 0.00 0.00 90 1007.3
20260509103931 57 311 5.2 9.6 0.00 0.00 0.00 90 1007.3
20260509103829 57 323 5.2 9.6 0.00 0.00 0.00 90 1007.3
20260509103728 57 263 4.3 9.6 0.00 0.00 0.00 90 1007.3
20260509103647 57 301 5.2 9.6 0.00 0.00 0.00 90 1007.3
20260509103524 57 304 6.1 9.6 0.00 0.00 0.00 90 1007.3
20260509103427 57 328 3.5 9.6 0.00 0.00 0.00 90 1007.3
20260509103326 57 295 4.3 9.6 0.00 0.00 0.00 90 1007.3
20260509103235 57 295 4.3 9.6 0.00 0.00 0.00 90 1007.3
20260509103146 57 272 3.5 9.6 0.00 0.00 0.00 90 1007.3
20260509103043 57 267 5.2 9.6 0.00 0.00 0.00 90 1007.3
20260509103003 57 325 5.2 9.6 0.00 0.00 0.00 90 1007.3
20260509102841 57 319 4.3 9.6 0.00 0.00 0.00 90 1007.2
20260509102742 57 281 3.5 9.6 0.00 0.00 0.00 90 1007.2
20260509102641 57 241 1.7 9.6 0.00 0.00 0.00 90 1007.2
20260509102603 57 306 2.6 9.6 0.00 0.00 0.00 90 1007.2
20260509102442 57 257 5.2 9.6 0.00 0.00 0.00 90 1007.2
20260509102400 57 320 6.1 9.6 0.00 0.00 0.00 90 1007.2
20260509102237 57 302 5.2 9.6 0.00 0.00 0.00 90 1007.2
20260509102136 57 291 3.5 9.6 0.00 0.00 0.00 90 1007.2
20260509102033 57 282 5.2 9.6 0.00 0.00 0.00 90 1007.2
20260509101952 57 292 5.2 9.6 0.00 0.00 0.00 90 1007.2
20260509101830 57 282 5.2 9.6 0.00 0.00 0.00 90 1007.2
20260509101749 57 302 4.3 9.6 0.00 0.00 0.00 90 1007.2
20260509101701 57 298 6.1 10.4 0.00 0.00 0.00 90 1007.2
20260509101539 57 271 7.0 10.4 0.00 0.00 0.00 89 1007.2
20260509101437 57 267 6.1 10.4 0.00 0.00 0.00 89 1007.2
20260509101336 57 296 5.2 10.4 0.00 0.00 0.00 89 1007.2
20260509101236 57 329 5.2 10.4 0.00 0.00 0.00 89 1007.2
20260509101134 57 256 5.2 10.4 0.00 0.00 0.00 89 1007.2
20260509101052 57 319 4.3 12.2 0.00 0.00 0.00 89 1007.2
20260509100934 57 243 4.3 12.2 0.00 0.00 0.00 89 1007.2
20260509100833 57 256 6.1 12.2 0.00 0.00 0.00 89 1007.2
20260509100731 57 277 5.2 12.2 0.00 0.00 0.00 89 1007.2
20260509100631 57 285 6.1 12.2 0.00 0.00 0.00 89 1007.2
20260509100532 57 322 5.2 12.2 0.00 0.00 0.00 89 1007.2
20260509100451 57 282 6.1 12.2 0.00 0.00 0.00 89 1007.2
20260509100329 57 301 6.1 12.2 0.00 0.00 0.00 89 1007.2
20260509100243 57 305 6.1 12.2 0.00 0.00 0.00 89 1007.2
20260509100152 57 329 4.3 12.2 0.00 0.00 0.00 89 1007.2
20260509100029 57 282 3.5 11.3 0.00 0.00 0.00 89 1007.2
20260509095928 57 333 7.0 11.3 0.00 0.00 0.00 89 1007.2
20260509095827 57 332 6.1 10.4 0.00 0.00 0.00 89 1007.5
20260509095745 57 322 6.1 10.4 0.00 0.00 0.00 89 1007.5
20260509095621 57 337 2.6 10.4 0.00 0.00 0.00 89 1007.5
20260509095543 57 243 5.2 10.4 0.00 0.00 0.00 89 1007.5
20260509095503 57 316 7.0 10.4 0.00 0.00 0.00 89 1007.5
20260509095337 57 330 6.1 10.4 0.00 0.00 0.00 89 1007.5
20260509095220 57 332 5.2 12.2 0.00 0.00 0.00 89 1007.5
20260509095143 57 326 6.1 12.2 0.00 0.00 0.00 89 1007.5
20260509095041 57 330 5.2 12.2 0.00 0.00 0.00 89 1007.5
20260509094940 57 319 4.3 13.9 0.00 0.00 0.00 89 1007.5
20260509094858 57 287 4.3 13.9 0.00 0.00 0.00 89 1007.5
20260509094756 57 325 4.3 13.9 0.00 0.00 0.00 89 1007.5
20260509094725 57 316 5.2 13.9 0.00 0.00 0.00 89 1007.5
20260509094526 57 313 5.2 13.9 0.00 0.00 0.00 88 1007.5
20260509094425 57 328 8.7 13.9 0.00 0.00 0.00 88 1007.5
20260509094324 57 312 7.8 13.9 0.00 0.00 0.00 88 1007.4
20260509094242 57 320 7.0 13.9 0.00 0.00 0.00 88 1007.4
20260509094140 57 305 8.7 13.9 0.00 0.00 0.00 88 1007.4
20260509094039 57 296 5.2 12.2 0.00 0.00 0.00 88 1007.4
20260509093937 57 326 3.5 12.2 0.00 0.00 0.00 88 1007.4
20260509093855 57 271 2.6 12.2 0.00 0.00 0.00 88 1007.4
20260509093736 57 302 4.3 12.2 0.00 0.00 0.00 88 1007.4
20260509093636 57 280 6.1 12.2 0.00 0.00 0.00 88 1007.4
20260509093535 57 294 6.1 13.9 0.00 0.00 0.00 88 1007.4
20260509093433 57 329 7.0 15.6 0.00 0.00 0.00 88 1007.4
20260509093331 57 326 4.3 16.5 0.00 0.00 0.00 88 1007.4
20260509093300 57 316 5.2 16.5 0.00 0.00 0.00 88 1007.4
20260509093152 57 251 5.2 16.5 0.00 0.00 0.00 88 1007.4
20260509093028 57 325 7.0 16.5 0.00 0.00 0.00 87 1007.4
20260509092932 57 275 7.8 16.5 0.00 0.00 0.00 87 1007.4
20260509092850 57 285 9.6 16.5 0.00 0.00 0.00 87 1007.4
20260509092727 57 313 7.8 16.5 0.00 0.00 0.00 87 1007.4
20260509092646 58 264 7.0 16.5 0.00 0.00 0.00 87 1007.4
20260509092543 58 272 10.4 16.5 0.00 0.00 0.00 87 1007.4
20260509092441 58 294 10.4 15.6 0.00 0.00 0.00 87 1007.4
20260509092339 58 291 9.6 14.8 0.00 0.00 0.00 87 1007.4
20260509092237 58 330 7.8 17.4 0.00 0.00 0.00 87 1007.4
20260509092139 58 254 7.8 17.4 0.00 0.00 0.00 87 1007.4
20260509092039 58 302 7.8 17.4 0.00 0.00 0.00 87 1007.4
20260509091938 58 312 7.8 17.4 0.00 0.00 0.00 87 1007.4
20260509091856 58 329 13.0 17.4 0.00 0.00 0.00 86 1007.4
20260509091744 58 291 9.6 17.4 0.00 0.00 0.00 86 1007.4
20260509091651 58 257 7.0 17.4 0.00 0.00 0.00 86 1007.4
20260509091529 58 323 7.8 17.4 0.00 0.00 0.00 86 1007.4
20260509091447 58 287 13.9 17.4 0.00 0.00 0.00 86 1007.4
20260509091329 58 288 8.7 16.5 0.00 0.00 0.00 86 1007.6
20260509091227 58 308 11.3 16.5 0.00 0.00 0.00 86 1007.6
20260509091146 58 312 7.8 16.5 0.00 0.00 0.00 86 1007.6
20260509091043 58 301 11.3 16.5 0.00 0.00 0.00 86 1007.6
20260509091002 58 291 10.4 16.5 0.00 0.00 0.00 86 1007.6
20260509090838 58 318 7.8 16.5 0.00 0.00 0.00 85 1007.6
20260509090739 58 332 7.8 16.5 0.00 0.00 0.00 85 1007.6
20260509090637 58 330 7.0 16.5 0.00 0.00 0.00 85 1007.6
20260509090556 58 280 8.7 16.5 0.00 0.00 0.00 85 1007.6
20260509090438 58 316 8.7 16.5 0.00 0.00 0.00 85 1007.6
20260509090336 58 325 7.8 16.5 0.00 0.00 0.00 85 1007.6
20260509090255 58 332 10.4 16.5 0.00 0.00 0.00 85 1007.6
20260509090223 58 232 9.6 16.5 0.00 0.00 0.00 85 1007.6
20260509090059 58 332 10.4 17.4 0.00 0.00 0.00 85 1007.6
20260509085938 58 337 9.6 18.2 0.00 0.00 0.00 85 1007.6
20260509085838 58 319 9.6 18.2 0.00 0.00 0.00 84 1007.7
20260509085736 58 328 11.3 18.2 0.00 0.00 0.00 84 1007.7
20260509085637 58 330 7.0 18.2 0.00 0.00 0.00 84 1007.7
20260509085557 58 299 7.0 18.2 0.00 0.00 0.00 84 1007.7
20260509085454 58 318 7.8 18.2 0.00 0.00 0.00 84 1007.7
20260509085334 58 282 7.8 18.2 0.00 0.00 0.00 84 1007.7
20260509085232 58 325 9.6 18.2 0.00 0.00 0.00 84 1007.7
20260509085130 58 312 10.4 18.2 0.00 0.00 0.00 84 1007.7
20260509085048 58 298 9.6 20.9 0.00 0.00 0.00 84 1007.7
20260509084925 58 264 7.8 20.9 0.00 0.00 0.00 84 1007.7
20260509084828 58 328 10.4 20.9 0.00 0.00 0.00 84 1007.7
20260509084748 58 312 11.3 20.9 0.00 0.00 0.00 83 1007.7
20260509084658 58 316 10.4 20.9 0.00 0.00 0.00 83 1007.7
20260509084536 58 329 13.0 20.9 0.00 0.00 0.00 83 1007.7
20260509084454 58 311 11.3 20.9 0.00 0.00 0.00 83 1007.7
20260509084351 58 329 10.4 20.9 0.00 0.00 0.00 83 1008.1
20260509084229 58 319 10.4 20.9 0.00 0.00 0.00 83 1008.1
20260509084127 58 306 7.8 17.4 0.00 0.00 0.00 83 1008.1
20260509084025 58 328 9.6 17.4 0.00 0.00 0.00 83 1008.1
20260509083928 58 312 8.7 17.4 0.00 0.00 0.00 83 1008.1
20260509083846 58 329 8.7 17.4 0.00 0.00 0.00 83 1008.1
20260509083745 58 320 9.6 17.4 0.00 0.00 0.00 83 1008.1
20260509083703 58 299 9.6 17.4 0.00 0.00 0.00 83 1008.1
20260509083600 58 267 8.7 15.6 0.00 0.00 0.00 83 1008.1
20260509083438 58 330 7.8 15.6 0.00 0.00 0.00 83 1008.1
20260509083357 58 330 7.0 15.6 0.00 0.00 0.00 83 1008.1
20260509083234 58 299 6.1 15.6 0.00 0.00 0.00 83 1008.1
20260509083204 58 333 7.8 15.6 0.00 0.00 0.00 83 1008.1
20260509083026 58 329 7.0 16.5 0.00 0.00 0.00 83 1008.1
20260509082925 58 329 6.1 16.5 0.00 0.00 0.00 83 1008.1
20260509082823 58 325 8.7 17.4 0.00 0.00 0.00 83 1008.0
20260509082742 58 332 8.7 17.4 0.00 0.00 0.00 83 1008.0
20260509082640 58 306 7.0 17.4 0.00 0.00 0.00 83 1008.0
20260509082540 58 299 8.7 17.4 0.00 0.00 0.00 83 1008.0
20260509082459 58 335 11.3 17.4 0.00 0.00 0.00 83 1008.0